Data for 07/15/2012

Time Sea-Level Adjusted Pressure Absolute Pressure Temperature Relative Humidity Dew Point Precipitation   
(mb) (inHg) (mb) (inHg) (C) (F) (%) (C) (F) (mm) (in)
00:01 1020 30.12 849 25.07 15.5 59.9 85 13 55.4 0 0
00:02 1020 30.12 849 25.07 15.5 59.9 86 13.2 55.7 0 0
00:03 1020 30.12 849 25.07 15.4 59.7 86 13.1 55.6 0 0
00:04 1020 30.12 849 25.07 15.4 59.6 87 13.2 55.8 0 0
00:05 1020 30.12 849 25.07 15.3 59.5 88 13.3 56 0 0
00:06 1020 30.12 849 25.07 15.2 59.3 89 13.3 56 0 0
00:07 1020 30.12 849 25.07 15.1 59.1 90 13.4 56.1 0 0
00:08 1020 30.12 849 25.07 15 58.9 90 13.4 56.1 0 0
00:09 1020 30.12 849 25.07 15 58.9 91 13.4 56.2 0 0
00:10 1020 30.12 849 25.07 14.9 58.9 91 13.5 56.4 0 0
00:11 1020 30.12 849 25.07 14.9 58.8 92 13.5 56.4 0 0
00:12 1020 30.12 849 25.07 14.9 58.8 92 13.6 56.4 0 0
00:13 1020 30.12 849 25.07 14.9 58.7 92 13.6 56.4 0 0
00:14 1020 30.12 849 25.07 14.9 58.8 92 13.6 56.4 0 0
00:15 1020 30.12 849 25.07 14.9 58.8 92 13.5 56.4 0 0
00:16 1020 30.12 849 25.07 14.9 58.8 92 13.6 56.4 0 0
00:17 1020 30.12 849 25.07 14.9 58.8 92 13.6 56.4 0 0
00:18 1020 30.12 849 25.07 14.9 58.9 92 13.6 56.4 0 0
00:19 1020 30.12 849 25.07 14.9 58.8 92 13.6 56.4 .2 0.008
00:20 1020 30.12 849 25.07 14.9 58.7 92 13.6 56.4 0 0
00:21 1020 30.12 849 25.07 14.9 58.7 92 13.6 56.5 0 0
00:22 1020 30.12 849 25.07 14.8 58.7 92 13.6 56.5 0 0
00:23 1020 30.12 849 25.07 14.8 58.6 93 13.7 56.6 .4 0.016
00:24 1020 30.12 849 25.07 14.8 58.6 93 13.7 56.6 0 0
00:25 1020 30.12 849 25.07 14.7 58.5 93 13.7 56.6 0 0
00:26 1020 30.12 849 25.07 14.7 58.5 93 13.7 56.6 0 0
00:27 1020 30.12 849 25.07 14.7 58.5 94 13.7 56.7 .2 0.008
00:28 1020 30.12 849 25.07 14.7 58.5 94 13.7 56.7 0 0
00:29 1020 30.12 849 25.07 14.7 58.5 94 13.7 56.7 0 0
00:30 1020 30.12 849 25.07 14.7 58.5 94 13.7 56.7 0 0
00:31 1020 30.12 849 25.07 14.7 58.5 94 13.7 56.7 0 0
00:32 1020 30.12 849 25.07 14.7 58.4 94 13.7 56.7 0 0
00:33 1020 30.12 849 25.07 14.7 58.4 94 13.8 56.8 0 0
00:34 1020 30.12 849 25.07 14.7 58.4 94 13.8 56.8 .2 0.008
00:35 1020 30.12 849 25.07 14.7 58.4 94 13.8 56.8 0 0
00:36 1020 30.12 849 25.07 14.6 58.4 95 13.8 56.8 0 0
00:37 1020 30.12 849 25.07 14.6 58.3 95 13.8 56.9 0 0
00:38 1020 30.12 849 25.07 14.6 58.3 95 13.8 56.9 0 0
00:39 1020 30.12 849 25.07 14.6 58.3 95 13.8 56.9 0 0
00:40 1020 30.12 849 25.07 14.6 58.3 95 13.8 56.9 0 0
00:41 1020 30.12 849 25.07 14.6 58.3 95 13.8 56.9 0 0
00:42 1020 30.12 849 25.07 14.6 58.2 95 13.8 56.9 0 0
00:43 1020 30.12 849 25.07 14.6 58.3 95 13.8 56.9 0 0
00:44 1020 30.12 849 25.07 14.6 58.3 95 13.9 56.9 0 0
00:45 1020 30.12 849 25.07 14.6 58.2 95 13.8 56.9 .2 0.008
00:46 1020 30.12 849 25.07 14.6 58.2 95 13.9 57 0 0
00:47 1020 30.12 849 25.07 14.6 58.2 96 13.9 57 0 0
00:48 1020 30.12 849 25.07 14.6 58.2 96 13.8 56.9 0 0
00:49 1020 30.12 849 25.07 14.6 58.2 96 13.9 57 0 0
00:50 1020 30.12 849 25.07 14.6 58.3 96 13.9 57 0 0
00:51 1020 30.12 849 25.07 14.6 58.3 96 13.9 57 0 0
00:52 1020 30.12 849 25.07 14.6 58.3 95 13.9 57 0 0
00:53 1019 30.09 849 25.07 14.6 58.4 95 13.9 57.1 .2 0.008
00:54 1019 30.09 849 25.07 14.7 58.4 95 13.9 57.1 0 0
00:55 1019 30.09 849 25.07 14.7 58.4 95 13.9 57 0 0
00:56 1019 30.09 849 25.07 14.7 58.4 95 13.9 57.1 0 0
00:57 1019 30.09 849 25.07 14.7 58.5 95 14 57.2 0 0
00:58 1019 30.09 849 25.07 14.6 58.4 95 13.9 57 0 0
00:59 1019 30.09 849 25.07 14.6 58.3 95 13.9 57 0 0
01:00 1019 30.09 849 25.07 14.6 58.3 95 13.9 57 0 0
01:01 1019 30.09 849 25.07 14.6 58.3 96 13.9 57 0 0
01:02 1019 30.09 849 25.07 14.6 58.2 96 13.9 57 0 0
01:03 1019 30.09 849 25.07 14.6 58.3 96 13.9 57.1 0 0
01:04 1019 30.09 849 25.07 14.6 58.2 96 13.9 57 .2 0.008
01:05 1019 30.09 849 25.07 14.6 58.2 96 13.9 57 0 0
01:06 1019 30.09 849 25.07 14.5 58.2 96 13.9 56.9 0 0
01:07 1019 30.09 849 25.07 14.5 58.2 96 13.9 57 0 0
01:08 1019 30.09 849 25.07 14.5 58 96 13.8 56.9 0 0
01:09 1019 30.09 849 25.07 14.5 58.1 96 13.8 56.9 0 0
01:10 1019 30.09 849 25.07 14.4 58 96 13.8 56.9 0 0
01:11 1019 30.09 849 25.07 14.4 57.9 96 13.8 56.8 0 0
01:12 1019 30.09 849 25.07 14.4 58 96 13.8 56.9 0 0
01:13 1019 30.09 849 25.07 14.4 57.9 96 13.8 56.9 .2 0.008
01:14 1019 30.09 849 25.07 14.4 57.9 96 13.8 56.9 0 0
01:15 1019 30.09 849 25.07 14.4 57.9 96 13.8 56.9 0 0
01:16 1019 30.09 849 25.07 14.4 57.9 96 13.8 56.9 0 0
01:17 1019 30.09 849 25.07 14.4 57.9 96 13.8 56.9 0 0
01:18 1019 30.09 849 25.07 14.4 58 96 13.9 57 0 0
01:19 1019 30.09 849 25.07 14.5 58 96 13.9 57 0 0
01:20 1019 30.09 849 25.07 14.4 58 96 13.9 57 0 0
01:21 1019 30.09 849 25.07 14.5 58 96 13.9 57 0 0
01:22 1019 30.09 849 25.07 14.5 58 96 13.9 57 0 0
01:23 1019 30.09 849 25.07 14.4 58 96 13.8 56.9 0 0
01:24 1019 30.09 849 25.07 14.4 58 96 13.8 56.9 0 0
01:25 1019 30.09 849 25.07 14.4 57.9 96 13.9 56.9 0 0
01:26 1019 30.09 849 25.07 14.4 57.9 97 13.9 56.9 0 0
01:27 1019 30.09 849 25.07 14.4 57.9 96 13.8 56.9 0 0
01:28 1019 30.09 848 25.04 14.4 57.8 96 13.8 56.8 0 0
01:29 1019 30.09 849 25.07 14.4 57.9 96 13.8 56.9 0 0
01:30 1019 30.09 849 25.07 14.5 58 96 13.9 57 0 0
01:31 1019 30.09 848 25.04 14.4 58 97 13.9 57 0 0
01:32 1019 30.09 848 25.04 14.4 58 97 13.9 57 0 0
01:33 1019 30.09 848 25.04 14.5 58 96 13.9 57 0 0
01:34 1019 30.09 848 25.04 14.4 58 96 13.9 57 0 0
01:35 1019 30.09 848 25.04 14.4 57.9 96 13.9 56.9 0 0
01:36 1019 30.09 848 25.04 14.4 58 96 13.9 57 0 0
01:37 1019 30.09 848 25.04 14.4 57.9 96 13.8 56.9 0 0
01:38 1019 30.09 848 25.04 14.4 57.9 96 13.8 56.9 0 0
01:39 1019 30.09 848 25.04 14.4 58 97 13.9 57 0 0
01:40 1019 30.09 848 25.04 14.4 57.9 97 13.9 57 0 0
01:41 1019 30.09 848 25.04 14.4 58 97 13.9 57 0 0
01:42 1019 30.09 848 25.04 14.4 57.9 97 13.8 56.9 .4 0.016
01:43 1019 30.09 848 25.04 14.4 57.9 97 13.9 56.9 0 0
01:44 1019 30.09 848 25.04 14.4 58 97 13.9 57 0 0
01:45 1019 30.09 848 25.04 14.4 58 97 13.9 57 0 0
01:46 1019 30.09 848 25.04 14.4 57.9 97 13.9 56.9 0 0
01:47 1019 30.09 848 25.04 14.4 58 97 13.9 57 0 0
01:48 1019 30.09 848 25.04 14.4 57.9 97 13.9 57 0 0
01:49 1019 30.09 848 25.04 14.4 57.9 96 13.8 56.9 0 0
01:50 1019 30.09 848 25.04 14.4 57.9 96 13.8 56.9 0 0
01:51 1019 30.09 848 25.04 14.4 57.9 97 13.9 56.9 0 0
01:52 1019 30.09 848 25.04 14.4 57.8 97 13.8 56.9 0 0
01:53 1019 30.09 848 25.04 14.4 57.9 97 13.9 57 0 0
01:54 1019 30.09 848 25.04 14.4 57.9 97 13.9 57 0 0
01:55 1019 30.09 848 25.04 14.4 57.9 97 13.9 57 0 0
01:56 1019 30.09 848 25.04 14.5 58 97 13.9 57.1 0 0
01:57 1019 30.09 848 25.04 14.5 58 97 13.9 57.1 0 0
01:58 1019 30.09 848 25.04 14.5 58.1 96 13.9 57.1 0 0
01:59 1019 30.09 848 25.04 14.5 58.1 96 13.9 57.1 0 0
02:00 1019 30.09 848 25.04 14.5 58.2 96 13.9 57.1 0 0
02:01 1019 30.09 848 25.04 14.5 58.1 96 13.9 57.1 0 0
02:02 1019 30.09 848 25.04 14.5 58.1 96 13.9 57 0 0
02:03 1019 30.09 848 25.04 14.5 58.1 96 13.9 57.1 0 0
02:04 1019 30.09 848 25.04 14.5 58.1 96 13.9 57.1 0 0
02:05 1019 30.09 848 25.04 14.5 58.2 96 13.9 57.1 0 0
02:06 1019 30.09 848 25.04 14.6 58.2 96 14 57.1 0 0
02:07 1019 30.09 848 25.04 14.6 58.2 96 14 57.1 0 0
02:08 1019 30.09 848 25.04 14.5 58.2 96 13.9 57.1 0 0
02:09 1019 30.09 848 25.04 14.6 58.2 96 14 57.2 0 0
02:10 1019 30.09 848 25.04 14.5 58.2 96 13.9 57.1 0 0
02:11 1019 30.09 848 25.04 14.6 58.2 96 14 57.1 0 0
02:12 1019 30.09 848 25.04 14.5 58.2 96 13.9 57.1 0 0
02:13 1019 30.09 848 25.04 14.6 58.2 96 14 57.2 0 0
02:14 1019 30.09 848 25.04 14.5 58.2 96 13.9 57.1 0 0
02:15 1019 30.09 848 25.04 14.5 58.2 96 13.9 57.1 0 0
02:16 1019 30.09 848 25.04 14.5 58.2 96 13.9 57.1 0 0
02:17 1019 30.09 848 25.04 14.5 58.1 96 13.9 57.1 0 0
02:18 1019 30.09 848 25.04 14.6 58.2 96 14 57.1 0 0
02:19 1019 30.09 848 25.04 14.6 58.2 96 14 57.2 0 0
02:20 1019 30.09 848 25.04 14.6 58.2 96 14 57.2 0 0
02:21 1019 30.09 848 25.04 14.6 58.2 96 14 57.2 0 0
02:22 1019 30.09 848 25.04 14.6 58.2 96 14 57.1 0 0
02:23 1019 30.09 848 25.04 14.6 58.2 96 14 57.2 0 0
02:24 1019 30.09 848 25.04 14.6 58.3 96 14 57.2 0 0
02:25 1019 30.09 848 25.04 14.6 58.3 96 14 57.2 0 0
02:26 1019 30.09 848 25.04 14.6 58.3 96 14 57.2 0 0
02:27 1019 30.09 848 25.04 14.7 58.4 96 14 57.2 0 0
02:28 1019 30.09 848 25.04 14.6 58.3 96 14 57.2 0 0
02:29 1019 30.09 848 25.04 14.6 58.4 96 14 57.2 0 0
02:30 1019 30.09 848 25.04 14.7 58.4 96 14 57.3 0 0
02:31 1019 30.09 848 25.04 14.7 58.4 96 14 57.3 0 0
02:32 1019 30.09 848 25.04 14.7 58.4 96 14.1 57.3 0 0
02:33 1019 30.09 848 25.04 14.7 58.5 96 14.1 57.3 0 0
02:34 1019 30.09 848 25.04 14.7 58.4 96 14 57.2 0 0
02:35 1019 30.09 848 25.04 14.6 58.3 95 13.9 57 0 0
02:36 1019 30.09 848 25.04 14.7 58.4 95 13.9 57.1 0 0
02:37 1019 30.09 848 25.04 14.7 58.5 95 13.9 57.1 0 0
02:38 1019 30.09 848 25.04 14.7 58.5 95 14 57.1 0 0
02:39 1019 30.09 848 25.04 14.7 58.5 95 13.9 57.1 0 0
02:40 1019 30.09 848 25.04 14.8 58.6 95 14 57.1 0 0
02:41 1019 30.09 848 25.04 14.8 58.6 95 14 57.2 0 0
02:42 1019 30.09 848 25.04 14.8 58.6 96 14.1 57.3 0 0
02:43 1019 30.09 848 25.04 14.8 58.6 96 14 57.3 0 0
02:44 1019 30.09 848 25.04 14.8 58.6 96 14.1 57.3 0 0
02:45 1019 30.09 848 25.04 14.7 58.5 95 14 57.2 0 0
02:46 1019 30.09 848 25.04 14.7 58.4 96 14 57.2 0 0
02:47 1019 30.09 848 25.04 14.7 58.4 96 14 57.2 0 0
02:48 1019 30.09 848 25.04 14.7 58.4 96 14 57.2 0 0
02:49 1019 30.09 848 25.04 14.6 58.3 96 14 57.2 0 0
02:50 1019 30.09 848 25.04 14.7 58.4 96 14.1 57.3 0 0
02:51 1019 30.09 848 25.04 14.7 58.4 96 14.1 57.4 0 0
02:52 1019 30.09 848 25.04 14.7 58.4 96 14.1 57.3 0 0
02:53 1019 30.09 848 25.04 14.7 58.4 96 14.1 57.3 0 0
02:54 1019 30.09 848 25.04 14.7 58.4 96 14.1 57.3 0 0
02:55 1019 30.09 848 25.04 14.7 58.4 96 14 57.3 0 0
02:56 1019 30.09 848 25.04 14.6 58.3 96 14 57.3 0 0
02:57 1019 30.09 848 25.04 14.7 58.4 96 14.1 57.3 0 0
02:58 1019 30.09 848 25.04 14.6 58.3 96 14 57.3 0 0
02:59 1019 30.09 848 25.04 14.6 58.3 96 14 57.2 0 0
03:00 1019 30.09 848 25.04 14.6 58.3 96 14 57.2 0 0
03:01 1019 30.09 848 25.04 14.6 58.2 96 14 57.2 0 0
03:02 1019 30.09 848 25.04 14.6 58.2 96 14 57.2 0 0
03:03 1019 30.09 848 25.04 14.6 58.2 96 14 57.2 0 0
03:04 1019 30.09 848 25.04 14.5 58.1 96 14 57.1 0 0
03:05 1019 30.09 848 25.04 14.6 58.2 97 14 57.3 0 0
03:06 1019 30.09 848 25.04 14.6 58.2 97 14 57.2 0 0
03:07 1019 30.09 848 25.04 14.5 58.2 97 14 57.2 0 0
03:08 1019 30.09 848 25.04 14.5 58.2 97 14 57.2 0 0
03:09 1019 30.09 848 25.04 14.5 58.2 97 14 57.2 0 0
03:10 1019 30.09 848 25.04 14.6 58.2 97 14 57.3 0 0
03:11 1019 30.09 848 25.04 14.6 58.2 97 14.1 57.3 0 0
03:12 1019 30.09 848 25.04 14.6 58.2 97 14 57.3 0 0
03:13 1019 30.09 848 25.04 14.5 58.1 97 14 57.2 0 0
03:14 1019 30.09 848 25.04 14.5 58.1 97 14 57.2 0 0
03:15 1019 30.09 848 25.04 14.5 58.1 97 14 57.1 0 0
03:16 1019 30.09 848 25.04 14.5 58.1 97 13.9 57.1 0 0
03:17 1019 30.09 848 25.04 14.5 58.1 97 13.9 57.1 0 0
03:18 1019 30.09 848 25.04 14.5 58 96 13.9 57 0 0
03:19 1019 30.09 848 25.04 14.4 58 96 13.8 56.8 0 0
03:20 1019 30.09 848 25.04 14.4 57.9 96 13.7 56.6 0 0
03:21 1019 30.09 848 25.04 14.4 57.9 95 13.7 56.6 0 0
03:22 1019 30.09 848 25.04 14.4 57.8 96 13.7 56.6 0 0
03:23 1019 30.09 848 25.04 14.4 57.9 96 13.7 56.7 0 0
03:24 1019 30.09 848 25.04 14.4 57.8 96 13.7 56.6 0 0
03:25 1019 30.09 848 25.04 14.4 57.9 96 13.7 56.7 0 0
03:26 1019 30.09 848 25.04 14.4 57.8 96 13.7 56.7 0 0
03:27 1019 30.09 848 25.04 14.4 57.9 96 13.8 56.8 0 0
03:28 1019 30.09 848 25.04 14.4 57.8 96 13.7 56.7 0 0
03:29 1019 30.09 848 25.04 14.4 57.9 96 13.7 56.7 0 0
03:30 1019 30.09 848 25.04 14.4 57.8 96 13.7 56.6 0 0
03:31 1019 30.09 848 25.04 14.3 57.7 95 13.5 56.4 0 0
03:32 1019 30.09 848 25.04 14.2 57.6 95 13.5 56.2 .2 0.008
03:33 1019 30.09 848 25.04 14.2 57.6 95 13.5 56.3 0 0
03:34 1019 30.09 848 25.04 14.2 57.6 95 13.5 56.2 0 0
03:35 1018 30.06 848 25.04 14.2 57.5 95 13.4 56.1 0 0
03:36 1019 30.09 848 25.04 14.1 57.4 95 13.4 56.1 0 0
03:37 1019 30.09 848 25.04 14.1 57.4 96 13.4 56.2 0 0
03:38 1019 30.09 848 25.04 14.1 57.4 96 13.4 56.2 0 0
03:39 1019 30.09 848 25.04 14.1 57.3 96 13.4 56.1 0 0
03:40 1019 30.09 848 25.04 14.1 57.3 96 13.4 56.2 0 0
03:41 1019 30.09 848 25.04 14 57.3 96 13.4 56.1 0 0
03:42 1019 30.09 848 25.04 14 57.2 96 13.4 56.1 0 0
03:43 1019 30.09 848 25.04 14 57.2 96 13.4 56.1 0 0
03:44 1019 30.09 848 25.04 14 57.2 96 13.4 56.2 0 0
03:45 1019 30.09 848 25.04 14 57.1 96 13.4 56.1 0 0
03:46 1019 30.09 848 25.04 13.9 57.1 96 13.4 56 0 0
03:47 1019 30.09 848 25.04 13.9 57.1 96 13.4 56.1 0 0
03:48 1019 30.09 848 25.04 13.9 57 97 13.3 56 0 0
03:49 1019 30.09 848 25.04 13.9 57 97 13.3 56 0 0
03:50 1019 30.09 848 25.04 13.9 57 97 13.4 56.1 0 0
03:51 1019 30.09 848 25.04 13.9 57 97 13.4 56.1 .2 0.008
03:52 1019 30.09 848 25.04 13.8 56.9 97 13.3 56 0 0
03:53 1019 30.09 848 25.04 13.9 57 97 13.4 56.1 0 0
03:54 1019 30.09 848 25.04 13.9 56.9 97 13.4 56.1 0 0
03:55 1019 30.09 848 25.04 13.8 56.9 97 13.3 56 0 0
03:56 1019 30.09 848 25.04 13.8 56.9 97 13.4 56 0 0
03:57 1019 30.09 848 25.04 13.8 56.9 97 13.3 56 0 0
03:58 1018 30.06 848 25.04 13.8 56.8 97 13.3 55.9 0 0
03:59 1019 30.09 848 25.04 13.8 56.8 97 13.4 56.1 .2 0.008
04:00 1019 30.09 848 25.04 13.8 56.8 97 13.4 56 0 0
04:01 1018 30.06 848 25.04 13.8 56.8 97 13.3 56 0 0
04:02 1018 30.06 848 25.04 13.8 56.8 97 13.4 56 0 0
04:03 1018 30.06 848 25.04 13.8 56.8 97 13.4 56.1 0 0
04:04 1019 30.09 848 25.04 13.8 56.8 97 13.4 56.1 0 0
04:05 1018 30.06 848 25.04 13.8 56.8 97 13.4 56 0 0
04:06 1018 30.06 848 25.04 13.8 56.8 97 13.4 56.1 0 0
04:07 1019 30.09 848 25.04 13.8 56.8 98 13.4 56.2 .2 0.008
04:08 1019 30.09 848 25.04 13.8 56.8 98 13.4 56.1 0 0
04:09 1019 30.09 848 25.04 13.8 56.9 98 13.4 56.2 0 0
04:10 1019 30.09 848 25.04 13.8 56.8 98 13.4 56.2 0 0
04:11 1018 30.06 848 25.04 13.8 56.8 98 13.4 56.2 0 0
04:12 1018 30.06 848 25.04 13.8 56.9 98 13.5 56.2 .4 0.016
04:13 1018 30.06 848 25.04 13.8 56.9 98 13.5 56.2 0 0
04:14 1018 30.06 848 25.04 13.8 56.9 98 13.5 56.2 0 0
04:15 1019 30.09 848 25.04 13.7 56.7 98 13.4 56.1 0 0
04:16 1019 30.09 848 25.04 13.8 56.8 98 13.4 56.2 .2 0.008
04:17 1019 30.09 848 25.04 13.8 56.8 98 13.4 56.2 0 0
04:18 1019 30.09 848 25.04 13.8 56.8 98 13.4 56.2 0 0
04:19 1019 30.09 848 25.04 13.8 56.8 98 13.4 56.2 0 0
04:20 1019 30.09 848 25.04 13.8 56.8 98 13.4 56.2 0 0
04:21 1019 30.09 848 25.04 13.8 56.8 98 13.5 56.2 .2 0.008
04:22 1019 30.09 848 25.04 13.8 56.8 98 13.5 56.2 0 0
04:23 1019 30.09 848 25.04 13.8 56.8 98 13.5 56.2 0 0
04:24 1019 30.09 848 25.04 13.8 56.8 98 13.5 56.2 0 0
04:25 1019 30.09 848 25.04 13.7 56.7 98 13.4 56.2 0 0
04:26 1019 30.09 848 25.04 13.7 56.7 98 13.4 56.1 .2 0.008
04:27 1019 30.09 848 25.04 13.7 56.7 98 13.4 56.1 0 0
04:28 1019 30.09 848 25.04 13.7 56.7 98 13.4 56.1 0 0
04:29 1019 30.09 848 25.04 13.7 56.7 98 13.4 56.2 0 0
04:30 1019 30.09 848 25.04 13.7 56.7 98 13.4 56.2 0 0
04:31 1019 30.09 848 25.04 13.7 56.7 98 13.5 56.3 .2 0.008
04:32 1019 30.09 848 25.04 13.7 56.7 98 13.5 56.2 .2 0.008
04:33 1019 30.09 848 25.04 13.7 56.7 98 13.5 56.2 0 0
04:34 1019 30.09 848 25.04 13.7 56.7 98 13.5 56.3 0 0
04:35 1019 30.09 848 25.04 13.7 56.6 98 13.4 56.2 .2 0.008
04:36 1019 30.09 848 25.04 13.7 56.7 98 13.5 56.2 0 0
04:37 1019 30.09 848 25.04 13.7 56.7 99 13.5 56.2 0 0
04:38 1019 30.09 848 25.04 13.7 56.6 99 13.5 56.2 0 0
04:39 1019 30.09 848 25.04 13.7 56.6 99 13.4 56.2 0 0
04:40 1019 30.09 848 25.04 13.7 56.6 99 13.5 56.2 .2 0.008
04:41 1019 30.09 848 25.04 13.7 56.6 99 13.5 56.2 0 0
04:42 1019 30.09 848 25.04 13.7 56.6 99 13.5 56.2 0 0
04:43 1019 30.09 848 25.04 13.7 56.7 99 13.5 56.3 0 0
04:44 1019 30.09 848 25.04 13.7 56.6 99 13.5 56.2 0 0
04:45 1019 30.09 848 25.04 13.7 56.6 99 13.4 56.2 .2 0.008
04:46 1019 30.09 848 25.04 13.6 56.5 99 13.4 56.1 0 0
04:47 1019 30.09 848 25.04 13.7 56.6 99 13.4 56.2 0 0
04:48 1019 30.09 848 25.04 13.7 56.6 99 13.4 56.2 0 0
04:49 1019 30.09 848 25.04 13.7 56.6 99 13.4 56.2 0 0
04:50 1019 30.09 848 25.04 13.6 56.6 99 13.4 56.2 0 0
04:51 1019 30.09 848 25.04 13.7 56.6 99 13.5 56.2 .4 0.016
04:52 1019 30.09 848 25.04 13.7 56.6 99 13.5 56.2 0 0
04:53 1019 30.09 848 25.04 13.7 56.6 99 13.5 56.3 0 0
04:54 1019 30.09 848 25.04 13.7 56.7 99 13.5 56.3 0 0
04:55 1019 30.09 848 25.04 13.7 56.7 99 13.5 56.3 0 0
04:56 1019 30.09 848 25.04 13.7 56.6 99 13.5 56.3 .2 0.008
04:57 1019 30.09 848 25.04 13.7 56.6 99 13.5 56.2 0 0
04:58 1019 30.09 848 25.04 13.7 56.6 99 13.5 56.2 0 0
04:59 1019 30.09 848 25.04 13.7 56.6 99 13.5 56.2 0 0
05:00 1019 30.09 848 25.04 13.7 56.6 99 13.5 56.2 0 0
05:01 1019 30.09 848 25.04 13.7 56.6 99 13.5 56.2 .2 0.008
05:02 1019 30.09 848 25.04 13.6 56.5 99 13.4 56.2 0 0
05:03 1019 30.09 848 25.04 13.6 56.5 99 13.4 56.2 0 0
05:04 1019 30.09 848 25.04 13.6 56.5 99 13.4 56.2 0 0
05:05 1019 30.09 848 25.04 13.6 56.5 99 13.4 56.2 0 0
05:06 1019 30.09 848 25.04 13.6 56.4 99 13.4 56.1 0 0
05:07 1019 30.09 848 25.04 13.6 56.5 99 13.4 56.1 0 0
05:08 1019 30.09 848 25.04 13.6 56.5 99 13.4 56.1 0 0
05:09 1019 30.09 848 25.04 13.6 56.5 99 13.4 56.2 0 0
05:10 1019 30.09 848 25.04 13.6 56.5 99 13.4 56.2 0 0
05:11 1019 30.09 848 25.04 13.6 56.5 99 13.4 56.1 0 0
05:12 1019 30.09 848 25.04 13.6 56.5 99 13.4 56.2 0 0
05:13 1019 30.09 848 25.04 13.6 56.5 99 13.4 56.2 0 0
05:14 1019 30.09 848 25.04 13.6 56.5 99 13.4 56.1 .2 0.008
05:15 1019 30.09 848 25.04 13.6 56.5 99 13.4 56.2 0 0
05:16 1019 30.09 848 25.04 13.6 56.5 99 13.4 56.2 0 0
05:17 1019 30.09 848 25.04 13.7 56.6 99 13.5 56.2 0 0
05:18 1019 30.09 848 25.04 13.6 56.5 99 13.4 56.2 0 0
05:19 1019 30.09 848 25.04 13.6 56.5 99 13.4 56.2 0 0
05:20 1019 30.09 848 25.04 13.7 56.6 99 13.5 56.2 0 0
05:21 1019 30.09 848 25.04 13.6 56.6 99 13.4 56.2 0 0
05:22 1019 30.09 848 25.04 13.7 56.6 99 13.5 56.2 0 0
05:23 1019 30.09 848 25.04 13.7 56.6 99 13.5 56.3 0 0
05:24 1019 30.09 848 25.04 13.7 56.7 99 13.5 56.3 0 0
05:25 1019 30.09 848 25.04 13.7 56.6 99 13.5 56.3 0 0
05:26 1019 30.09 848 25.04 13.7 56.7 99 13.5 56.3 .2 0.008
05:27 1019 30.09 848 25.04 13.7 56.7 99 13.5 56.3 0 0
05:28 1019 30.09 848 25.04 13.7 56.7 99 13.5 56.3 0 0
05:29 1019 30.09 848 25.04 13.7 56.7 98 13.5 56.3 0 0
05:30 1019 30.09 848 25.04 13.7 56.7 98 13.5 56.3 0 0
05:31 1018 30.06 848 25.04 13.8 56.8 98 13.5 56.3 0 0
05:32 1019 30.09 848 25.04 13.8 56.8 98 13.5 56.3 0 0
05:33 1018 30.06 848 25.04 13.8 56.8 98 13.4 56.2 0 0
05:34 1018 30.06 848 25.04 13.8 56.8 98 13.5 56.3 0 0
05:35 1018 30.06 848 25.04 13.8 56.8 98 13.5 56.2 0 0
05:36 1018 30.06 848 25.04 13.8 56.8 98 13.4 56.2 0 0
05:37 1018 30.06 848 25.04 13.8 56.9 98 13.5 56.3 0 0
05:38 1018 30.06 848 25.04 13.8 56.9 98 13.4 56.2 0 0
05:39 1018 30.06 848 25.04 13.9 56.9 98 13.5 56.3 0 0
05:40 1018 30.06 848 25.04 13.9 56.9 98 13.5 56.2 0 0
05:41 1019 30.09 848 25.04 13.8 56.9 98 13.4 56.2 0 0
05:42 1019 30.09 848 25.04 13.8 56.9 97 13.4 56.1 0 0
05:43 1018 30.06 848 25.04 13.8 56.9 97 13.4 56.1 0 0
05:44 1018 30.06 848 25.04 13.8 56.8 97 13.4 56.1 0 0
05:45 1018 30.06 848 25.04 13.8 56.9 97 13.4 56.1 0 0
05:46 1018 30.06 848 25.04 13.8 56.9 97 13.4 56.1 0 0
05:47 1018 30.06 848 25.04 13.8 56.9 97 13.4 56.2 0 0
05:48 1018 30.06 848 25.04 13.8 56.9 97 13.4 56.1 0 0
05:49 1018 30.06 848 25.04 13.8 56.9 97 13.4 56.1 0 0
05:50 1019 30.09 848 25.04 13.8 56.9 97 13.4 56.1 0 0
05:51 1019 30.09 848 25.04 13.9 57 97 13.4 56.1 0 0
05:52 1019 30.09 848 25.04 13.9 57 97 13.4 56.1 0 0
05:53 1019 30.09 848 25.04 13.9 57 97 13.4 56 0 0
05:54 1019 30.09 848 25.04 13.9 57 97 13.3 56 0 0
05:55 1019 30.09 848 25.04 13.9 57 97 13.4 56 0 0
05:56 1019 30.09 848 25.04 13.9 57 97 13.3 56 0 0
05:57 1019 30.09 848 25.04 13.9 56.9 97 13.3 56 0 0
05:58 1019 30.09 848 25.04 13.9 56.9 97 13.3 56 0 0
05:59 1019 30.09 848 25.04 13.9 56.9 97 13.3 56 0 0
06:00 1019 30.09 848 25.04 13.8 56.9 97 13.3 55.9 0 0
06:01 1019 30.09 848 25.04 13.8 56.8 97 13.3 55.9 0 0
06:02 1019 30.09 848 25.04 13.8 56.8 97 13.3 55.9 0 0
06:03 1019 30.09 848 25.04 13.8 56.9 96 13.3 55.9 0 0
06:04 1019 30.09 848 25.04 13.9 56.9 96 13.3 55.9 0 0
06:05 1019 30.09 848 25.04 13.8 56.9 96 13.3 55.9 0 0
06:06 1019 30.09 848 25.04 13.9 56.9 96 13.3 55.9 0 0
06:07 1019 30.09 848 25.04 13.9 57 96 13.3 55.9 0 0
06:08 1019 30.09 848 25.04 13.9 56.9 96 13.3 55.9 0 0
06:09 1019 30.09 848 25.04 13.8 56.9 96 13.3 55.9 0 0
06:10 1019 30.09 848 25.04 13.8 56.9 96 13.3 55.9 0 0
06:11 1019 30.09 848 25.04 13.9 57 96 13.3 55.9 0 0
06:12 1019 30.09 848 25.04 13.9 57 96 13.3 55.9 0 0
06:13 1019 30.09 848 25.04 13.9 57 96 13.3 55.9 0 0
06:14 1019 30.09 848 25.04 13.9 57 96 13.3 55.9 0 0
06:15 1019 30.09 848 25.04 13.9 57 96 13.3 55.9 0 0
06:16 1019 30.09 848 25.04 13.9 57 96 13.3 55.9 0 0
06:17 1019 30.09 848 25.04 13.9 57 96 13.3 55.9 0 0
06:18 1019 30.09 848 25.04 13.9 56.9 96 13.3 55.9 0 0
06:19 1019 30.09 848 25.04 13.8 56.9 96 13.2 55.8 0 0
06:20 1019 30.09 848 25.04 13.8 56.8 96 13.2 55.7 0 0
06:21 1019 30.09 848 25.04 13.8 56.9 96 13.2 55.7 0 0
06:22 1019 30.09 848 25.04 13.8 56.8 96 13.1 55.6 0 0
06:23 1019 30.09 848 25.04 13.8 56.8 96 13.1 55.5 0 0
06:24 1019 30.09 848 25.04 13.8 56.8 95 13 55.5 0 0
06:25 1019 30.09 848 25.04 13.8 56.8 95 13 55.4 0 0
06:26 1019 30.09 848 25.04 13.8 56.8 95 13 55.3 0 0
06:27 1019 30.09 848 25.04 13.8 56.8 95 12.9 55.3 0 0
06:28 1019 30.09 848 25.04 13.8 56.8 95 12.9 55.3 0 0
06:29 1019 30.09 848 25.04 13.7 56.7 95 12.9 55.2 0 0
06:30 1019 30.09 848 25.04 13.7 56.7 95 12.9 55.2 0 0
06:31 1019 30.09 848 25.04 13.7 56.7 95 12.9 55.2 0 0
06:32 1019 30.09 848 25.04 13.7 56.7 95 12.9 55.1 0 0
06:33 1019 30.09 848 25.04 13.7 56.7 95 12.8 55.1 0 0
06:34 1019 30.09 848 25.04 13.7 56.6 94 12.8 55.1 0 0
06:35 1019 30.09 848 25.04 13.6 56.6 94 12.8 55 0 0
06:36 1019 30.09 848 25.04 13.6 56.5 95 12.8 55 0 0
06:37 1019 30.09 848 25.04 13.6 56.4 95 12.7 54.9 0 0
06:38 1019 30.09 848 25.04 13.5 56.4 95 12.7 54.9 0 0
06:39 1019 30.09 848 25.04 13.5 56.3 95 12.7 54.9 0 0
06:40 1019 30.09 848 25.04 13.5 56.3 95 12.7 54.9 0 0
06:41 1019 30.09 848 25.04 13.5 56.2 95 12.7 54.9 0 0
06:42 1019 30.09 848 25.04 13.4 56.2 95 12.7 54.9 0 0
06:43 1019 30.09 848 25.04 13.4 56.1 96 12.7 54.9 0 0
06:44 1019 30.09 848 25.04 13.4 56.1 96 12.7 54.8 0 0
06:45 1019 30.09 848 25.04 13.4 56 96 12.7 54.9 0 0
06:46 1019 30.09 848 25.04 13.4 56 96 12.8 55 0 0
06:47 1019 30.09 848 25.04 13.4 56.1 97 12.9 55.2 0 0
06:48 1019 30.09 848 25.04 13.5 56.3 97 13 55.3 0 0
06:49 1019 30.09 848 25.04 13.6 56.5 97 13.1 55.6 0 0
06:50 1019 30.09 848 25.04 13.7 56.6 97 13.2 55.7 0 0
06:51 1019 30.09 848 25.04 13.7 56.7 96 13.1 55.6 0 0
06:52 1019 30.09 848 25.04 13.7 56.7 96 13.1 55.6 0 0
06:53 1019 30.09 848 25.04 13.7 56.7 96 13.2 55.7 0 0
06:54 1019 30.09 848 25.04 13.8 56.8 96 13.2 55.7 0 0
06:55 1019 30.09 848 25.04 13.8 56.8 96 13.2 55.8 0 0
06:56 1019 30.09 848 25.04 13.9 57 97 13.3 56 0 0
06:57 1019 30.09 848 25.04 14 57.2 96 13.3 56 0 0
06:58 1019 30.09 848 25.04 14.1 57.4 95 13.3 56 0 0
06:59 1019 30.09 848 25.04 14.2 57.5 95 13.4 56 0 0
07:00 1019 30.09 848 25.04 14.3 57.7 95 13.4 56.1 0 0
07:01 1019 30.09 848 25.04 14.4 57.8 94 13.4 56.2 0 0
07:02 1019 30.09 848 25.04 14.5 58.1 94 13.5 56.3 0 0
07:03 1019 30.09 848 25.04 14.6 58.2 94 13.7 56.6 0 0
07:04 1019 30.09 848 25.04 14.7 58.4 93 13.6 56.5 0 0
07:05 1019 30.09 848 25.04 14.8 58.6 93 13.6 56.4 0 0
07:06 1019 30.09 848 25.04 14.8 58.7 91 13.5 56.2 0 0
07:07 1019 30.09 848 25.04 14.8 58.7 90 13.3 55.9 0 0
07:08 1019 30.09 848 25.04 14.9 58.7 92 13.6 56.4 0 0
07:09 1019 30.09 848 25.04 15 59 91 13.5 56.3 0 0
07:10 1019 30.09 848 25.04 15 59 92 13.7 56.6 0 0
07:11 1019 30.09 848 25.04 15.1 59.1 90 13.4 56.2 0 0
07:12 1019 30.09 848 25.04 15.1 59.2 91 13.6 56.5 0 0
07:13 1019 30.09 848 25.04 15.1 59.2 89 13.4 56.1 0 0
07:14 1019 30.09 848 25.04 15.1 59.2 90 13.5 56.3 0 0
07:15 1019 30.09 848 25.04 15.1 59.2 89 13.4 56.1 0 0
07:16 1019 30.09 848 25.04 15.1 59.2 91 13.6 56.5 0 0
07:17 1019 30.09 848 25.04 15.1 59.2 89 13.4 56.1 0 0
07:18 1019 30.09 848 25.04 15.2 59.3 90 13.6 56.5 0 0
07:19 1019 30.09 848 25.04 15.2 59.4 90 13.6 56.5 0 0
07:20 1019 30.09 848 25.04 15.2 59.4 88 13.3 56 0 0
07:21 1019 30.09 848 25.04 15.3 59.5 89 13.5 56.3 0 0
07:22 1019 30.09 848 25.04 15.3 59.6 88 13.3 55.9 0 0
07:23 1019 30.09 848 25.04 15.4 59.7 88 13.4 56.2 0 0
07:24 1019 30.09 848 25.04 15.4 59.7 87 13.3 56 0 0
07:25 1019 30.09 848 25.04 15.4 59.8 88 13.5 56.4 0 0
07:26 1019 30.09 848 25.04 15.5 59.9 87 13.4 56 0 0
07:27 1019 30.09 848 25.04 15.6 60.1 87 13.4 56.2 0 0
07:28 1019 30.09 848 25.04 15.7 60.2 86 13.4 56.1 0 0
07:29 1019 30.09 848 25.04 15.8 60.4 87 13.6 56.5 0 0
07:30 1019 30.09 848 25.04 15.9 60.5 86 13.6 56.5 0 0
07:31 1019 30.09 848 25.04 15.9 60.6 84 13.2 55.8 0 0
07:32 1019 30.09 848 25.04 16 60.7 82 13 55.4 0 0
07:33 1019 30.09 848 25.04 15.9 60.7 84 13.2 55.8 0 0
07:34 1019 30.09 848 25.04 15.9 60.6 81 12.7 54.8 0 0
07:35 1019 30.09 848 25.04 15.8 60.5 82 12.9 55.2 0 0
07:36 1019 30.09 848 25.04 15.9 60.5 85 13.4 56.2 0 0
07:37 1019 30.09 848 25.04 16 60.8 86 13.7 56.7 0 0
07:38 1019 30.09 848 25.04 16 60.8 86 13.7 56.6 0 0
07:39 1019 30.09 848 25.04 16 60.7 86 13.6 56.4 0 0
07:40 1019 30.09 848 25.04 15.9 60.6 84 13.2 55.8 0 0
07:41 1019 30.09 848 25.04 16 60.7 84 13.3 55.9 0 0
07:42 1019 30.09 848 25.04 16 60.7 85 13.5 56.3 0 0
07:43 1019 30.09 848 25.04 16.1 60.9 84 13.3 56 0 0
07:44 1019 30.09 848 25.04 16.1 61 85 13.6 56.5 0 0
07:45 1019 30.09 848 25.04 16.1 61 84 13.4 56.1 0 0
07:46 1019 30.09 848 25.04 16.2 61.2 83 13.4 56.1 0 0
07:47 1019 30.09 848 25.04 16.4 61.4 83 13.4 56.1 0 0
07:48 1019 30.09 848 25.04 16.5 61.7 81 13.2 55.8 0 0
07:49 1019 30.09 848 25.04 16.6 61.9 82 13.6 56.5 0 0
07:50 1019 30.09 848 25.04 16.7 62 80 13.2 55.8 0 0
07:51 1019 30.09 848 25.04 16.6 62 79 13.1 55.6 0 0
07:52 1019 30.09 848 25.04 16.6 61.9 80 13.1 55.7 0 0
07:53 1019 30.09 848 25.04 16.7 62.1 81 13.4 56.2 0 0
07:54 1019 30.09 848 25.04 16.8 62.2 80 13.4 56.1 0 0
07:55 1019 30.09 848 25.04 16.8 62.3 80 13.4 56 0 0
07:56 1019 30.09 848 25.04 16.9 62.4 81 13.7 56.7 0 0
07:57 1019 30.09 848 25.04 16.9 62.5 80 13.5 56.3 0 0
07:58 1019 30.09 848 25.04 16.9 62.4 81 13.7 56.7 0 0
07:59 1019 30.09 848 25.04 16.8 62.3 82 13.9 57 0 0
08:00 1019 30.09 848 25.04 16.9 62.4 81 13.6 56.6 0 0
08:01 1019 30.09 848 25.04 16.9 62.4 81 13.6 56.5 0 0
08:02 1019 30.09 848 25.04 16.9 62.4 78 13.1 55.6 0 0
08:03 1019 30.09 848 25.04 16.9 62.3 80 13.4 56.1 0 0
08:04 1019 30.09 848 25.04 16.9 62.4 81 13.6 56.4 0 0
08:05 1019 30.09 848 25.04 17 62.5 80 13.5 56.4 0 0
08:06 1019 30.09 848 25.04 17 62.6 79 13.4 56.1 0 0
08:07 1019 30.09 848 25.04 17.1 62.7 79 13.5 56.3 0 0
08:08 1019 30.09 848 25.04 17 62.6 77 13 55.4 0 0
08:09 1019 30.09 848 25.04 17 62.6 78 13.3 55.9 0 0
08:10 1019 30.09 848 25.04 17.1 62.7 78 13.2 55.7 0 0
08:11 1019 30.09 848 25.04 17.1 62.8 82 14.1 57.4 0 0
08:12 1019 30.09 848 25.04 17.1 62.8 78 13.3 56 0 0
08:13 1019 30.09 848 25.04 17 62.7 79 13.3 56 0 0
08:14 1019 30.09 848 25.04 16.9 62.5 80 13.4 56.1 0 0
08:15 1019 30.09 848 25.04 16.8 62.3 81 13.6 56.5 0 0
08:16 1019 30.09 848 25.04 16.8 62.3 81 13.5 56.3 0 0
08:17 1019 30.09 848 25.04 16.9 62.5 81 13.7 56.6 0 0
08:18 1019 30.09 848 25.04 17 62.6 78 13.1 55.6 0 0
08:19 1019 30.09 848 25.04 17.1 62.8 79 13.5 56.3 0 0
08:20 1019 30.09 848 25.04 17.2 63 79 13.5 56.3 0 0
08:21 1019 30.09 848 25.04 17.3 63.1 80 13.9 57 0 0
08:22 1019 30.09 848 25.04 17.4 63.3 79 13.8 56.9 0 0
08:23 1019 30.09 848 25.04 17.4 63.4 76 13.1 55.6 0 0
08:24 1019 30.09 848 25.04 17.4 63.3 76 13.1 55.6 0 0
08:25 1019 30.09 848 25.04 17.3 63.2 76 13.2 55.7 0 0
08:26 1019 30.09 848 25.04 17.3 63.1 79 13.6 56.5 0 0
08:27 1019 30.09 848 25.04 17.3 63.2 77 13.3 56 0 0
08:28 1019 30.09 848 25.04 17.3 63.2 78 13.5 56.4 0 0
08:29 1019 30.09 848 25.04 17.5 63.4 79 13.8 56.9 0 0
08:30 1019 30.09 848 25.04 17.5 63.5 75 13.1 55.6 0 0
08:31 1019 30.09 848 25.04 17.5 63.5 74 12.8 55.1 0 0
08:32 1019 30.09 848 25.04 17.4 63.4 74 12.9 55.1 0 0
08:33 1019 30.09 848 25.04 17.4 63.3 76 13.2 55.7 0 0
08:34 1019 30.09 848 25.04 17.4 63.3 76 13.2 55.7 0 0
08:35 1019 30.09 848 25.04 17.4 63.4 75 13 55.3 0 0
08:36 1019 30.09 848 25.04 17.5 63.6 77 13.6 56.4 0 0
08:37 1019 30.09 848 25.04 17.6 63.7 75 13.2 55.7 0 0
08:38 1019 30.09 848 25.04 17.7 63.8 78 13.8 56.8 0 0
08:39 1019 30.09 848 25.04 17.6 63.7 73 12.8 55 0 0
08:40 1019 30.09 848 25.04 17.6 63.7 74 13 55.4 0 0
08:41 1019 30.09 848 25.04 17.6 63.7 75 13.1 55.6 0 0
08:42 1019 30.09 848 25.04 17.7 63.8 77 13.7 56.7 0 0
08:43 1019 30.09 848 25.04 17.7 63.9 73 12.9 55.2 0 0
08:44 1019 30.09 848 25.04 17.6 63.7 76 13.3 55.9 0 0
08:45 1019 30.09 848 25.04 17.7 63.9 71 12.5 54.6 0 0
08:46 1019 30.09 848 25.04 17.7 63.9 75 13.2 55.7 0 0
08:47 1019 30.09 848 25.04 17.8 64 73 13 55.4 0 0
08:48 1019 30.09 848 25.04 17.8 64.1 71 12.5 54.5 0 0
08:49 1019 30.09 848 25.04 17.7 63.9 71 12.4 54.3 0 0
08:50 1019 30.09 848 25.04 17.6 63.7 73 12.7 54.8 0 0
08:51 1019 30.09 848 25.04 17.6 63.7 72 12.7 54.8 0 0
08:52 1019 30.09 848 25.04 17.7 63.9 72 12.6 54.7 0 0
08:53 1019 30.09 848 25.04 17.8 64 73 12.8 55.1 0 0
08:54 1019 30.09 848 25.04 17.7 63.9 72 12.6 54.7 0 0
08:55 1019 30.09 848 25.04 17.6 63.7 73 12.8 55 0 0
08:56 1019 30.09 848 25.04 17.7 63.8 70 12.2 54 0 0
08:57 1019 30.09 848 25.04 17.7 63.9 70 12.3 54.1 0 0
08:58 1019 30.09 848 25.04 17.9 64.3 72 12.8 55 0 0
08:59 1019 30.09 848 25.04 18.1 64.6 72 13.1 55.6 0 0
09:00 1019 30.09 848 25.04 18.1 64.6 70 12.7 54.8 0 0
09:01 1019 30.09 848 25.04 18.1 64.5 74 13.5 56.2 0 0
09:02 1019 30.09 848 25.04 18.3 64.9 72 13.2 55.8 0 0
09:03 1019 30.09 848 25.04 18.4 65.1 69 12.8 55 0 0
09:04 1019 30.09 848 25.04 18.4 65 70 12.9 55.2 0 0
09:05 1019 30.09 848 25.04 18.4 65.1 71 13.1 55.6 0 0
09:06 1019 30.09 848 25.04 18.3 65 70 12.9 55.3 0 0
09:07 1019 30.09 848 25.04 18.3 65 70 12.7 54.9 0 0
09:08 1019 30.09 848 25.04 18.3 64.9 72 13.3 55.9 0 0
09:09 1019 30.09 848 25.04 18.3 64.9 69 12.6 54.7 0 0
09:10 1019 30.09 848 25.04 18.3 65 69 12.6 54.8 0 0
09:11 1019 30.09 848 25.04 18.4 65.1 67 12.2 54 0 0
09:12 1019 30.09 848 25.04 18.4 65.2 69 12.8 55.1 0 0
09:13 1019 30.09 848 25.04 18.5 65.3 66 12.2 54 0 0
09:14 1019 30.09 848 25.04 18.4 65.2 70 12.8 55.1 0 0
09:15 1019 30.09 848 25.04 18.5 65.3 68 12.6 54.7 0 0
09:16 1019 30.09 848 25.04 18.5 65.4 71 13.2 55.8 0 0
09:17 1019 30.09 848 25.04 18.5 65.4 69 12.8 55 0 0
09:18 1019 30.09 848 25.04 18.6 65.5 67 12.4 54.4 0 0
09:19 1019 30.09 848 25.04 18.6 65.5 69 12.8 55.1 0 0
09:20 1019 30.09 848 25.04 18.6 65.6 68 12.6 54.7 0 0
09:21 1019 30.09 848 25.04 18.7 65.7 72 13.6 56.5 0 0
09:22 1019 30.09 848 25.04 18.8 65.8 69 12.9 55.3 0 0
09:23 1019 30.09 848 25.04 18.6 65.6 70 13.1 55.5 0 0
09:24 1019 30.09 848 25.04 18.6 65.5 74 14 57.2 0 0
09:25 1019 30.09 848 25.04 18.6 65.6 67 12.4 54.4 0 0
09:26 1019 30.09 848 25.04 18.6 65.5 70 13 55.4 0 0
09:27 1019 30.09 848 25.04 18.5 65.3 69 12.7 54.9 0 0
09:28 1019 30.09 848 25.04 18.5 65.3 66 12.1 53.8 0 0
09:29 1019 30.09 848 25.04 18.5 65.3 67 12.4 54.3 0 0
09:30 1019 30.09 848 25.04 18.5 65.3 66 12.2 53.9 0 0
09:31 1019 30.09 848 25.04 18.5 65.4 70 13 55.4 0 0
09:32 1019 30.09 848 25.04 18.7 65.6 69 12.9 55.2 0 0
09:33 1019 30.09 848 25.04 18.7 65.7 67 12.6 54.7 0 0
09:34 1019 30.09 848 25.04 18.7 65.6 67 12.5 54.5 0 0
09:35 1019 30.09 848 25.04 18.7 65.6 66 12.3 54.2 0 0
09:36 1019 30.09 848 25.04 18.7 65.7 70 13.2 55.8 0 0
09:37 1019 30.09 848 25.04 18.9 65.9 68 13 55.4 0 0
09:38 1019 30.09 848 25.04 18.9 66 65 12.1 53.9 0 0
09:39 1019 30.09 848 25.04 18.8 65.9 65 12.2 53.9 0 0
09:40 1019 30.09 848 25.04 18.9 66.1 64 12.1 53.7 0 0
09:41 1019 30.09 848 25.04 19.1 66.3 66 12.6 54.7 0 0
09:42 1019 30.09 848 25.04 19.1 66.3 69 13.2 55.8 0 0
09:43 1019 30.09 848 25.04 19.1 66.3 68 13 55.4 0 0
09:44 1019 30.09 848 25.04 19.1 66.3 67 12.8 55.1 0 0
09:45 1019 30.09 848 25.04 19.1 66.4 65 12.6 54.6 0 0
09:46 1019 30.09 848 25.04 19.1 66.3 65 12.5 54.5 0 0
09:47 1019 30.09 848 25.04 19 66.3 66 12.7 54.9 0 0
09:48 1019 30.09 848 25.04 19 66.3 67 12.9 55.2 0 0
09:49 1019 30.09 848 25.04 19 66.1 66 12.6 54.6 0 0
09:50 1019 30.09 848 25.04 19 66.1 66 12.5 54.6 0 0
09:51 1019 30.09 848 25.04 19 66.2 66 12.6 54.7 0 0
09:52 1019 30.09 848 25.04 19.1 66.3 63 12 53.7 0 0
09:53 1019 30.09 848 25.04 19.1 66.4 65 12.6 54.6 0 0
09:54 1019 30.09 848 25.04 19.1 66.4 67 12.8 55.1 0 0
09:55 1019 30.09 848 25.04 19.1 66.5 63 12 53.6 0 0
09:56 1019 30.09 848 25.04 19.1 66.4 63 12 53.5 0 0
09:57 1019 30.09 848 25.04 19.2 66.6 63 12 53.6 0 0
09:58 1019 30.09 848 25.04 19.3 66.7 64 12.4 54.3 0 0
09:59 1019 30.09 848 25.04 19.2 66.6 63 12.1 53.9 0 0
10:00 1019 30.09 848 25.04 19.3 66.7 62 11.9 53.5 0 0
10:01 1019 30.09 848 25.04 19.4 66.9 62 12 53.5 0 0
10:02 1019 30.09 848 25.04 19.5 67.1 62 12 53.6 0 0
10:03 1019 30.09 848 25.04 19.6 67.3 63 12.5 54.4 0 0
10:04 1019 30.09 848 25.04 19.7 67.5 66 13.2 55.8 0 0
10:05 1019 30.09 848 25.04 19.8 67.7 63 12.7 54.9 0 0
10:06 1019 30.09 848 25.04 19.8 67.7 65 13 55.5 0 0
10:07 1019 30.09 848 25.04 19.8 67.7 64 12.9 55.2 0 0
10:08 1019 30.09 848 25.04 19.9 67.9 60 11.9 53.5 0 0
10:09 1019 30.09 848 25.04 19.9 67.9 62 12.4 54.4 0 0
10:10 1019 30.09 848 25.04 20.1 68.1 66 13.6 56.4 0 0
10:11 1019 30.09 848 25.04 20.2 68.3 58 11.9 53.4 0 0
10:12 1019 30.09 848 25.04 20 68 60 12.2 53.9 0 0
10:13 1019 30.09 848 25.04 19.9 67.8 64 13.1 55.5 0 0
10:14 1019 30.09 848 25.04 20 68 64 13 55.4 0 0
10:15 1019 30.09 848 25.04 20.1 68.1 59 11.9 53.4 0 0
10:16 1019 30.09 848 25.04 19.9 67.9 58 11.6 53 0 0
10:17 1019 30.09 848 25.04 19.9 67.9 59 11.8 53.3 0 0
10:18 1019 30.09 848 25.04 20 68.1 65 13.4 56.1 0 0
10:19 1019 30.09 848 25.04 20.3 68.5 58 11.8 53.2 0 0
10:20 1019 30.09 848 25.04 20.3 68.6 60 12.5 54.4 0 0
10:21 1019 30.09 848 25.04 20.3 68.5 56 11.2 52.2 0 0
10:22 1019 30.09 848 25.04 20.2 68.4 64 13.3 55.9 0 0
10:23 1019 30.09 848 25.04 20.3 68.5 63 13 55.4 0 0
10:24 1019 30.09 848 25.04 20.4 68.6 63 13.3 55.9 0 0
10:25 1019 30.09 848 25.04 20.4 68.8 59 12.3 54.1 0 0
10:26 1019 30.09 848 25.04 20.3 68.5 57 11.8 53.2 0 0
10:27 1019 30.09 848 25.04 20.2 68.4 62 12.7 54.9 0 0
10:28 1019 30.09 848 25.04 20.2 68.3 59 12 53.5 0 0
10:29 1019 30.09 848 25.04 20.2 68.3 63 13.1 55.6 0 0
10:30 1019 30.09 848 25.04 20.3 68.5 60 12.4 54.4 0 0
10:31 1019 30.09 848 25.04 20.2 68.4 58 11.8 53.2 0 0
10:32 1019 30.09 848 25.04 20.2 68.4 59 12.1 53.8 0 0
10:33 1019 30.09 848 25.04 20.3 68.5 61 12.5 54.5 0 0
10:34 1019 30.09 848 25.04 20.3 68.5 61 12.7 54.9 0 0
10:35 1019 30.09 848 25.04 20.4 68.7 63 13.2 55.7 0 0
10:36 1019 30.09 848 25.04 20.6 69 57 12 53.6 0 0
10:37 1019 30.09 848 25.04 20.6 69 62 13.2 55.7 0 0
10:38 1019 30.09 848 25.04 20.6 69 62 13.2 55.8 0 0
10:39 1019 30.09 848 25.04 20.5 68.8 58 12 53.6 0 0
10:40 1019 30.09 848 25.04 20.3 68.6 67 14 57.2 0 0
10:41 1019 30.09 848 25.04 20.5 68.8 59 12.3 54.1 0 0
10:42 1019 30.09 848 25.04 20.7 69.2 56 11.7 53.1 0 0
10:43 1019 30.09 848 25.04 20.6 69.1 55 11.4 52.6 0 0
10:44 1019 30.09 848 25.04 20.5 68.9 55 11.3 52.4 0 0
10:45 1019 30.09 848 25.04 20.5 68.8 56 11.5 52.6 0 0
10:46 1019 30.09 848 25.04 20.5 68.9 54 11 51.9 0 0
10:47 1019 30.09 848 25.04 20.6 69.1 55 11.3 52.4 0 0
10:48 1019 30.09 848 25.04 20.7 69.3 55 11.3 52.4 0 0
10:49 1019 30.09 848 25.04 20.8 69.5 54 11.4 52.6 0 0
10:50 1019 30.09 848 25.04 20.9 69.6 60 12.8 55.1 0 0
10:51 1019 30.09 848 25.04 20.9 69.6 54 11.4 52.6 0 0
10:52 1019 30.09 848 25.04 20.8 69.5 59 12.6 54.6 0 0
10:53 1019 30.09 848 25.04 20.8 69.5 57 12.2 54 0 0
10:54 1019 30.09 848 25.04 20.9 69.7 57 12.3 54.1 0 0
10:55 1019 30.09 848 25.04 21 69.7 55 11.6 52.9 0 0
10:56 1019 30.09 848 25.04 21 69.8 60 13.1 55.7 0 0
10:57 1019 30.09 848 25.04 21 69.8 54 11.6 52.9 0 0
10:58 1018 30.06 848 25.04 20.9 69.7 57 12.1 53.8 0 0
10:59 1018 30.06 848 25.04 20.8 69.5 57 12.2 53.9 .2 0.008
11:00 1018 30.06 848 25.04 20.8 69.4 59 12.5 54.5 0 0
11:01 1018 30.06 848 25.04 20.9 69.6 61 13.2 55.8 0 0
11:02 1018 30.06 848 25.04 21.1 69.9 53 11.1 52 0 0
11:03 1018 30.06 848 25.04 21.1 69.9 55 11.8 53.2 0 0
11:04 1018 30.06 848 25.04 21 69.8 55 11.7 53.1 0 0
11:05 1018 30.06 848 25.04 21.1 69.9 59 12.8 55 0 0
11:06 1018 30.06 848 25.04 21.1 70.1 57 12.3 54.2 0 0
11:07 1018 30.06 848 25.04 21.2 70.2 56 12.3 54.2 0 0
11:08 1018 30.06 848 25.04 21.1 70.1 55 11.9 53.4 0 0
11:09 1018 30.06 848 25.04 21.1 69.9 53 11.2 52.1 0 0
11:10 1018 30.06 848 25.04 21 69.8 54 11.5 52.7 0 0
11:11 1018 30.06 848 25.04 21 69.7 54 11.4 52.6 0 0
11:12 1018 30.06 848 25.04 21.1 69.9 53 11.3 52.3 0 0
11:13 1018 30.06 848 25.04 21.2 70.1 54 11.8 53.2 0 0
11:14 1018 30.06 848 25.04 21.1 70.1 52 10.9 51.7 0 0
11:15 1018 30.06 848 25.04 21.1 70 54 11.7 53 0 0
11:16 1018 30.06 848 25.04 21.3 70.3 51 10.9 51.7 0 0
11:17 1018 30.06 848 25.04 21.3 70.4 51 10.9 51.7 0 0
11:18 1018 30.06 848 25.04 21.4 70.5 50 10.8 51.4 0 0
11:19 1018 30.06 848 25.04 21.3 70.4 51 10.9 51.7 0 0
11:20 1018 30.06 848 25.04 21.5 70.6 53 11.6 52.9 0 0
11:21 1018 30.06 848 25.04 21.8 71.2 50 11 51.9 0 0
11:22 1018 30.06 848 25.04 21.9 71.5 50 11.3 52.4 0 0
11:23 1018 30.06 848 25.04 22.1 71.8 55 12.9 55.3 0 0
11:24 1018 30.06 848 25.04 22.3 72.1 49 11.1 51.9 0 0
11:25 1018 30.06 848 25.04 22.3 72.1 54 12.6 54.8 0 0
11:26 1018 30.06 848 25.04 22.3 72.2 51 12 53.6 0 0
11:27 1018 30.06 848 25.04 22.4 72.3 50 11.7 53.1 0 0
11:28 1018 30.06 848 25.04 22.3 72.1 56 13.1 55.6 0 0
11:29 1018 30.06 848 25.04 22.1 71.7 51 11.6 52.9 0 0
11:30 1018 30.06 848 25.04 21.9 71.5 50 11.1 51.9 0 0
11:31 1018 30.06 848 25.04 21.8 71.3 49 10.8 51.4 0 0
11:32 1018 30.06 847 25.01 21.8 71.2 50 11.1 52 0 0
11:33 1018 30.06 847 25.01 21.8 71.3 51 11.3 52.3 0 0
11:34 1018 30.06 847 25.01 21.9 71.5 49 10.8 51.4 0 0
11:35 1018 30.06 847 25.01 22.1 71.7 46 10 50.1 0 0
11:36 1018 30.06 847 25.01 22.1 71.7 46 10.2 50.3 0 0
11:37 1018 30.06 847 25.01 22 71.7 47 10.5 50.9 0 0
11:38 1018 30.06 847 25.01 22.1 71.7 49 11 51.8 0 0
11:39 1018 30.06 847 25.01 22.2 72 49 11.2 52.2 0 0
11:40 1018 30.06 847 25.01 22.4 72.3 49 11.4 52.5 0 0
11:41 1018 30.06 847 25.01 22.4 72.4 55 13.1 55.6 0 0
11:42 1018 30.06 847 25.01 22.5 72.5 49 11.5 52.7 0 0
11:43 1018 30.06 847 25.01 22.5 72.4 54 12.9 55.2 0 0
11:44 1018 30.06 847 25.01 22.5 72.4 49 11.3 52.4 0 0
11:45 1018 30.06 847 25.01 22.4 72.2 47 10.7 51.2 0 0
11:46 1018 30.06 847 25.01 22.4 72.3 50 11.6 52.8 0 0
11:47 1018 30.06 847 25.01 22.5 72.5 51 11.9 53.5 0 0
11:48 1018 30.06 847 25.01 22.3 72.1 49 11.2 52.1 0 0
11:49 1018 30.06 847 25.01 22.1 71.8 57 13.4 56.2 0 0
11:50 1018 30.06 847 25.01 22.2 72 50 11.4 52.5 0 0
11:51 1018 30.06 847 25.01 22.3 72.1 48 11 51.8 0 0
11:52 1018 30.06 847 25.01 22.2 72 51 11.7 53.1 0 0
11:53 1018 30.06 847 25.01 22.2 72 50 11.5 52.7 0 0
11:54 1018 30.06 847 25.01 22.3 72.1 48 10.8 51.4 0 0
11:55 1018 30.06 847 25.01 22.3 72.1 49 11.2 52.2 0 0
11:56 1018 30.06 847 25.01 22.4 72.3 50 11.5 52.7 0 0
11:57 1018 30.06 847 25.01 22.4 72.4 50 11.5 52.8 0 0
11:58 1018 30.06 847 25.01 22.5 72.4 47 10.8 51.4 0 0
11:59 1018 30.06 847 25.01 22.5 72.6 47 10.9 51.6 0 0
12:00 1018 30.06 847 25.01 22.6 72.6 50 11.7 53.1 0 0
12:01 1018 30.06 847 25.01 22.7 72.8 50 11.9 53.4 0 0
12:02 1018 30.06 847 25.01 22.8 73 55 13.4 56.1 0 0
12:03 1018 30.06 847 25.01 22.9 73.2 52 12.6 54.7 0 0
12:04 1018 30.06 847 25.01 22.9 73.1 45 10.6 51 0 0
12:05 1018 30.06 847 25.01 22.6 72.8 51 12.2 54 0 0
12:06 1018 30.06 847 25.01 22.5 72.4 51 12 53.6 0 0
12:07 1018 30.06 847 25.01 22.5 72.5 47 10.7 51.3 0 0
12:08 1018 30.06 847 25.01 22.5 72.5 50 11.7 53 0 0
12:09 1018 30.06 847 25.01 22.7 72.9 49 11.7 53.1 0 0
12:10 1018 30.06 847 25.01 22.9 73.2 49 11.8 53.3 0 0
12:11 1018 30.06 847 25.01 22.9 73.3 44 10.2 50.4 0 0
12:12 1018 30.06 847 25.01 22.9 73.3 47 11.2 52.2 0 0
12:13 1018 30.06 847 25.01 22.8 73 48 11.3 52.3 0 0
12:14 1018 30.06 847 25.01 22.6 72.7 48 11.2 52.2 0 0
12:15 1018 30.06 847 25.01 22.6 72.6 47 10.8 51.5 0 0
12:16 1018 30.06 847 25.01 22.8 73 47 11.2 52.1 0 0
12:17 1018 30.06 847 25.01 22.8 73 46 10.9 51.6 0 0
12:18 1018 30.06 847 25.01 22.7 72.9 47 10.9 51.6 0 0
12:19 1018 30.06 847 25.01 22.6 72.7 47 11 51.7 0 0
12:20 1018 30.06 847 25.01 22.6 72.7 47 11 51.8 0 0
12:21 1018 30.06 847 25.01 22.7 72.8 47 11 51.8 0 0
12:22 1018 30.06 847 25.01 22.5 72.6 47 10.8 51.4 0 0
12:23 1018 30.06 847 25.01 22.4 72.2 46 10.5 50.9 0 0
12:24 1018 30.06 847 25.01 22.1 71.9 49 11.2 52.1 0 0
12:25 1018 30.06 847 25.01 22.1 71.9 47 10.5 51 0 0
12:26 1018 30.06 847 25.01 22.2 71.9 48 10.7 51.2 0 0
12:27 1018 30.06 847 25.01 22.5 72.5 50 11.6 52.8 0 0
12:28 1018 30.06 847 25.01 22.8 73 50 12 53.5 0 0
12:29 1018 30.06 847 25.01 22.9 73.3 51 12.5 54.5 0 0
12:30 1018 30.06 847 25.01 22.9 73.1 44 10 50 0 0
12:31 1018 30.06 847 25.01 22.7 72.8 45 10.4 50.7 0 0
12:32 1018 30.06 847 25.01 22.5 72.5 47 10.8 51.5 0 0
12:33 1018 30.06 847 25.01 22.4 72.2 48 11 51.8 0 0
12:34 1018 30.06 847 25.01 22.2 72 50 11.4 52.5 0 0
12:35 1018 30.06 847 25.01 22.2 71.9 52 11.9 53.3 0 0
12:36 1018 30.06 847 25.01 22.2 72 45 9.9 49.9 0 0
12:37 1018 30.06 847 25.01 22.1 71.7 45 9.8 49.7 0 0
12:38 1018 30.06 847 25.01 22 71.5 49 10.9 51.6 0 0
12:39 1018 30.06 847 25.01 22 71.6 46 10.1 50.2 0 0
12:40 1018 30.06 847 25.01 22.2 72 46 10.3 50.6 0 0
12:41 1018 30.06 847 25.01 22.5 72.4 43 9.6 49.3 0 0
12:42 1018 30.06 847 25.01 22.6 72.8 44 10.1 50.1 0 0
12:43 1018 30.06 847 25.01 22.9 73.2 50 12.1 53.8 0 0
12:44 1018 30.06 847 25.01 23.1 73.6 45 10.6 51.1 0 0
12:45 1017 30.03 847 25.01 23.3 74 49 12.1 53.7 0 0
12:46 1017 30.03 847 25.01 23.5 74.2 44 10.6 51 0 0
12:47 1017 30.03 847 25.01 23.4 74.1 41 9.6 49.2 0 0
12:48 1017 30.03 847 25.01 23.3 73.9 47 11.4 52.5 0 0
12:49 1017 30.03 847 25.01 23.3 73.9 42 9.9 49.8 0 0
12:50 1017 30.03 847 25.01 23.2 73.7 43 10.2 50.3 0 0
12:51 1017 30.03 847 25.01 23.2 73.8 46 11.2 52.1 0 0
12:52 1017 30.03 847 25.01 23.5 74.2 44 10.7 51.2 0 0
12:53 1017 30.03 847 25.01 23.5 74.3 45 11.1 51.9 0 0
12:54 1017 30.03 847 25.01 23.4 74.2 42 9.8 49.7 0 0
12:55 1017 30.03 847 25.01 23.3 73.9 43 10.4 50.6 0 0
12:56 1017 30.03 846 24.98 23.3 73.9 45 10.8 51.4 0 0
12:57 1017 30.03 846 24.98 23.3 74 42 9.7 49.5 0 0
12:58 1017 30.03 846 24.98 23.2 73.8 43 10.2 50.4 0 0
12:59 1017 30.03 846 24.98 23.2 73.8 45 10.7 51.2 0 0
13:00 1017 30.03 846 24.98 23.3 74 43 10.2 50.3 0 0
13:01 1017 30.03 846 24.98 23.5 74.2 43 10.2 50.4 0 0
13:02 1017 30.03 846 24.98 23.6 74.4 44 10.9 51.6 0 0
13:03 1017 30.03 846 24.98 23.6 74.4 45 11 51.8 0 0
13:04 1017 30.03 846 24.98 23.7 74.7 44 10.9 51.7 0 0
13:05 1017 30.03 846 24.98 23.8 74.8 43 10.5 50.9 0 0
13:06 1017 30.03 846 24.98 23.7 74.7 43 10.6 51.1 0 0
13:07 1017 30.03 846 24.98 23.7 74.7 43 10.6 51 0 0
13:08 1017 30.03 846 24.98 23.6 74.5 44 10.8 51.5 0 0
13:09 1017 30.03 846 24.98 23.5 74.2 42 10 50 0 0
13:10 1017 30.03 846 24.98 23.5 74.3 41 9.5 49.1 0 0
13:11 1017 30.03 846 24.98 23.6 74.5 40 9.3 48.7 0 0
13:12 1017 30.03 846 24.98 23.7 74.7 41 9.9 49.8 0 0
13:13 1017 30.03 846 24.98 24 75.1 47 12.2 53.9 0 0
13:14 1017 30.03 846 24.98 24 75.3 39 9.6 49.2 0 0
13:15 1017 30.03 846 24.98 24 75.2 40 9.9 49.8 0 0
13:16 1017 30.03 846 24.98 23.9 75 42 10.3 50.6 0 0
13:17 1017 30.03 846 24.98 23.9 75 44 10.9 51.7 0 0
13:18 1017 30.03 846 24.98 24.1 75.3 40 9.6 49.4 0 0
13:19 1017 30.03 846 24.98 24.1 75.4 42 10.6 51 0 0
13:20 1017 30.03 846 24.98 24.3 75.7 40 10 50 0 0
13:21 1017 30.03 846 24.98 24.4 76 43 11.4 52.4 0 0
13:22 1017 30.03 846 24.98 24.5 76.1 38 9.6 49.3 0 0
13:23 1017 30.03 846 24.98 24.4 76 37 9.2 48.6 0 0
13:24 1017 30.03 846 24.98 24.3 75.7 38 9.2 48.5 0 0
13:25 1017 30.03 846 24.98 24.2 75.5 37 8.9 48 0 0
13:26 1017 30.03 846 24.98 24.1 75.4 37 8.6 47.5 0 0
13:27 1017 30.03 846 24.98 24 75.3 37 8.8 47.9 0 0
13:28 1017 30.03 846 24.98 24.1 75.3 37 8.6 47.6 0 0
13:29 1017 30.03 846 24.98 24.2 75.6 38 9.1 48.3 0 0
13:30 1017 30.03 846 24.98 24.4 75.8 37 8.9 48 0 0
13:31 1017 30.03 846 24.98 24.4 75.8 37 9 48.2 0 0
13:32 1017 30.03 846 24.98 24.4 75.8 37 8.9 48 0 0
13:33 1017 30.03 846 24.98 24.3 75.8 36 8.5 47.4 0 0
13:34 1017 30.03 846 24.98 24.4 75.9 37 9 48.2 0 0
13:35 1017 30.03 846 24.98 24.5 76.1 40 10.2 50.3 0 0
13:36 1017 30.03 846 24.98 24.7 76.5 38 9.5 49.1 0 0
13:37 1017 30.03 846 24.98 24.9 76.9 36 9.2 48.5 0 0
13:38 1017 30.03 846 24.98 25 77 37 9.5 49 0 0
13:39 1017 30.03 846 24.98 25.1 77.3 36 9.3 48.8 0 0
13:40 1017 30.03 846 24.98 25.1 77.2 39 10.4 50.7 0 0
13:41 1017 30.03 846 24.98 25.1 77.1 34 8.3 47 0 0
13:42 1017 30.03 846 24.98 25 76.9 40 10.7 51.3 0 0
13:43 1017 30.03 846 24.98 25 77 34 8.1 46.6 0 0
13:44 1017 30.03 846 24.98 25.1 77.2 37 9.6 49.3 0 0
13:45 1017 30.03 846 24.98 25.2 77.3 36 9.3 48.7 0 0
13:46 1017 30.03 846 24.98 25.3 77.5 40 11 51.7 0 0
13:47 1017 30.03 846 24.98 25.4 77.7 38 10.4 50.8 0 0
13:48 1017 30.03 846 24.98 25.4 77.7 36 9.6 49.2 0 0
13:49 1017 30.03 846 24.98 25.2 77.3 35 9 48.2 0 0
13:50 1017 30.03 846 24.98 25 77 35 8.7 47.6 0 0
13:51 1017 30.03 846 24.98 25 77 35 8.7 47.7 0 0
13:52 1017 30.03 846 24.98 25.1 77.2 35 8.9 48 0 0
13:53 1017 30.03 846 24.98 25.3 77.5 39 10.4 50.7 0 0
13:54 1017 30.03 846 24.98 25.4 77.6 36 9.6 49.2 0 0
13:55 1016 30 846 24.98 25.4 77.8 37 9.7 49.5 0 0
13:56 1016 30 846 24.98 25.5 77.9 36 9.4 48.9 0 0
13:57 1016 30 846 24.98 25.6 78 38 10.5 50.9 0 0
13:58 1016 30 846 24.98 25.7 78.2 34 9.1 48.3 0 0
13:59 1016 30 846 24.98 25.5 77.9 36 9.5 49.1 0 0
14:00 1016 30 846 24.98 25.4 77.7 37 9.7 49.4 0 0
14:01 1016 30 846 24.98 25.4 77.6 38 10.4 50.7 0 0
14:02 1016 30 846 24.98 25.5 77.9 37 9.8 49.7 0 0
14:03 1016 30 846 24.98 25.6 78.1 34 8.9 48.1 0 0
14:04 1016 30 846 24.98 25.5 77.9 37 10.1 50.2 0 0
14:05 1016 30 846 24.98 25.4 77.6 36 9.6 49.3 0 0
14:06 1016 30 846 24.98 25.4 77.6 37 9.7 49.5 0 0
14:07 1016 30 845 24.95 25.5 77.8 39 10.9 51.6 0 0
14:08 1016 30 845 24.95 25.6 78 35 9.1 48.4 0 0
14:09 1016 30 845 24.95 25.6 78 35 9.3 48.7 0 0
14:10 1016 30 845 24.95 25.7 78.3 34 8.9 48.1 0 0
14:11 1016 30 845 24.95 25.9 78.6 34 8.9 48 0 0
14:12 1016 30 845 24.95 26 78.7 35 9.5 49.1 0 0
14:13 1016 30 845 24.95 25.9 78.5 39 11.2 52.1 0 0
14:14 1016 30 845 24.95 25.9 78.6 38 10.6 51.1 0 0
14:15 1016 30 845 24.95 25.9 78.7 34 8.9 48.1 0 0
14:16 1016 30 845 24.95 25.8 78.5 39 11 51.9 0 0
14:17 1016 30 845 24.95 25.6 78 35 9.1 48.4 0 0
14:18 1016 30 845 24.95 25.3 77.5 36 9.2 48.6 0 0
14:19 1016 30 845 24.95 25.1 77.3 40 10.7 51.2 0 0
14:20 1016 30 845 24.95 25 77.1 39 10.4 50.8 0 0
14:21 1016 30 845 24.95 25 76.9 39 10.5 50.8 0 0
14:22 1016 30 845 24.95 25 77 38 9.7 49.5 0 0
14:23 1016 30 845 24.95 25.1 77.2 35 8.8 47.8 0 0
14:24 1016 30 845 24.95 25.4 77.7 36 9.6 49.4 0 0
14:25 1016 30 845 24.95 25.6 78 36 9.8 49.6 0 0
14:26 1016 30 845 24.95 25.5 77.9 38 10.2 50.4 0 0
14:27 1016 30 845 24.95 25.3 77.6 36 9.6 49.3 0 0
14:28 1016 30 845 24.95 25.3 77.6 38 10.2 50.4 0 0
14:29 1016 30 845 24.95 25.5 77.8 36 9.7 49.4 0 0
14:30 1016 30 845 24.95 25.5 77.9 38 10.3 50.6 0 0
14:31 1016 30 845 24.95 25.4 77.7 37 9.8 49.6 0 0
14:32 1016 30 845 24.95 25.2 77.4 37 9.9 49.7 0 0
14:33 1016 30 845 24.95 25.2 77.3 35 9 48.2 0 0
14:34 1016 30 845 24.95 25.1 77.1 39 10.4 50.7 0 0
14:35 1016 30 845 24.95 25 77 35 8.8 47.8 0 0
14:36 1016 30 845 24.95 25 76.9 35 8.8 47.9 0 0
14:37 1016 30 845 24.95 24.9 76.8 37 9.5 49.1 0 0
14:38 1016 30 845 24.95 24.9 76.9 37 9.6 49.3 0 0
14:39 1016 30 845 24.95 25 76.9 39 10.3 50.5 0 0
14:40 1016 30 845 24.95 25 76.9 36 9.1 48.4 0 0
14:41 1016 30 845 24.95 25.1 77.1 41 11.1 51.9 0 0
14:42 1016 30 845 24.95 25.4 77.7 35 9.3 48.7 0 0
14:43 1016 30 845 24.95 25.6 78 34 8.8 47.9 0 0
14:44 1016 30 845 24.95 25.7 78.2 33 8.4 47.1 0 0
14:45 1016 30 845 24.95 25.6 78.1 33 8.4 47.2 0 0
14:46 1016 30 845 24.95 25.7 78.2 34 8.7 47.7 0 0
14:47 1016 30 845 24.95 25.7 78.2 34 9 48.2 0 0
14:48 1016 30 845 24.95 25.8 78.4 33 8.7 47.7 0 0
14:49 1016 30 845 24.95 25.8 78.5 34 9.1 48.3 0 0
14:50 1016 30 845 24.95 25.8 78.5 33 8.7 47.7 0 0
14:51 1016 30 845 24.95 25.8 78.4 34 8.8 47.8 0 0
14:52 1016 30 845 24.95 25.7 78.3 41 11.7 53.1 0 0
14:53 1016 30 845 24.95 25.7 78.2 36 9.6 49.3 0 0
14:54 1016 30 845 24.95 25.6 78.1 37 10.2 50.4 0 0
14:55 1016 30 845 24.95 25.5 77.9 40 11.1 52 0 0
14:56 1016 30 845 24.95 25.4 77.7 40 11.1 52 0 0
14:57 1016 30 845 24.95 25.3 77.5 38 10 50 0 0
14:58 1016 30 845 24.95 25.3 77.5 35 9.2 48.5 0 0
14:59 1016 30 845 24.95 25.2 77.4 40 11 51.9 0 0
15:00 1016 30 845 24.95 25.2 77.4 36 9.4 48.9 0 0
15:01 1016 30 845 24.95 25.2 77.4 36 9.2 48.5 0 0
15:02 1016 30 845 24.95 25.2 77.3 36 9.4 48.9 0 0
15:03 1016 30 845 24.95 25.1 77.2 42 11.5 52.7 0 0
15:04 1016 30 845 24.95 25 77.1 42 11.3 52.3 0 0
15:05 1016 30 845 24.95 25 76.9 41 11.1 51.9 0 0
15:06 1016 30 845 24.95 25 76.9 41 11 51.7 0 0
15:07 1016 30 845 24.95 25 76.9 41 10.9 51.6 0 0
15:08 1016 30 845 24.95 25 77.1 38 9.8 49.6 0 0
15:09 1016 30 845 24.95 25.1 77.2 41 11.1 52 0 0
15:10 1016 30 845 24.95 25.2 77.3 37 9.6 49.4 0 0
15:11 1016 30 845 24.95 25.4 77.6 35 9.1 48.4 0 0
15:12 1016 30 845 24.95 25.6 78 37 10.2 50.4 0 0
15:13 1016 30 845 24.95 25.7 78.2 40 11.4 52.5 0 0
15:14 1016 30 845 24.95 25.8 78.4 34 8.8 47.9 0 0
15:15 1016 30 845 24.95 25.9 78.7 38 10.8 51.4 0 0
15:16 1016 30 845 24.95 26.2 79.1 34 9.2 48.5 0 0
15:17 1016 30 845 24.95 26.4 79.4 33 9.1 48.3 0 0
15:18 1016 30 845 24.95 26.4 79.4 36 10.2 50.4 0 0
15:19 1016 30 845 24.95 26.4 79.4 34 9.7 49.4 0 0
15:20 1016 30 845 24.95 26.4 79.5 36 10.5 50.8 0 0
15:21 1016 30 845 24.95 26.2 79.2 33 8.8 47.9 0 0
15:22 1016 30 845 24.95 26 78.7 37 10.5 50.9 0 0
15:23 1016 30 845 24.95 25.8 78.4 39 10.9 51.6 0 0
15:24 1016 30 845 24.95 25.6 78.1 42 12.1 53.8 0 0
15:25 1016 30 845 24.95 25.4 77.7 45 12.8 55 0 0
15:26 1016 30 845 24.95 25.3 77.5 41 11.5 52.6 0 0
15:27 1016 30 845 24.95 25.1 77.3 42 11.4 52.6 0 0
15:28 1016 30 845 24.95 24.8 76.7 42 11.3 52.4 0 0
15:29 1016 30 845 24.95 24 75.3 41 10.4 50.6 0 0
15:30 1016 30 845 24.95 23.4 74.1 47 11.6 52.8 0 0
15:31 1016 30 845 24.95 23.2 73.8 45 10.8 51.4 0 0
15:32 1016 30 845 24.95 23 73.4 43 9.9 49.8 0 0
15:33 1016 30 845 24.95 22.8 73 46 10.8 51.4 0 0
15:34 1016 30 845 24.95 22.4 72.3 47 10.6 51 0 0
15:35 1016 30 845 24.95 22 71.6 48 10.6 51 0 0
15:36 1016 30 845 24.95 21.8 71.2 50 11.2 52.1 0 0
15:37 1016 30 845 24.95 21.9 71.5 49 10.8 51.4 0 0
15:38 1016 30 845 24.95 22.1 71.7 50 11.2 52.2 0 0
15:39 1016 30 845 24.95 22.4 72.4 48 11.1 51.9 0 0
15:40 1016 30 845 24.95 22.6 72.7 47 10.9 51.6 0 0
15:41 1016 30 845 24.95 22.5 72.6 48 11.1 52 0 0
15:42 1016 30 845 24.95 22.3 72.1 46 10.1 50.2 0 0
15:43 1016 30 845 24.95 21.9 71.5 48 10.7 51.3 0 0
15:44 1016 30 845 24.95 21.7 71.1 48 10.4 50.8 0 0
15:45 1016 30 845 24.95 21.7 71.1 49 10.6 51.1 0 0
15:46 1016 30 845 24.95 21.7 71 49 10.6 51 0 0
15:47 1016 30 845 24.95 21.5 70.7 48 10.2 50.4 0 0
15:48 1016 30 845 24.95 21.4 70.5 47 9.9 49.8 0 0
15:49 1016 30 845 24.95 21.3 70.4 46 9.5 49.1 0 0
15:50 1016 30 846 24.98 21.3 70.3 46 9.3 48.8 0 0
15:51 1016 30 846 24.98 21.3 70.3 47 9.5 49.1 0 0
15:52 1016 30 846 24.98 21.2 70.2 48 9.9 49.8 0 0
15:53 1016 30 846 24.98 21.3 70.3 46 9.5 49 0 0
15:54 1016 30 846 24.98 21.3 70.3 48 9.9 49.7 0 0
15:55 1016 30 846 24.98 21.2 70.2 49 10.1 50.3 0 0
15:56 1016 30 846 24.98 21.2 70.1 50 10.4 50.8 0 0
15:57 1016 30 846 24.98 21.1 70 49 10.1 50.2 0 0
15:58 1016 30 846 24.98 21.1 69.9 50 10.5 50.8 0 0
15:59 1016 30 846 24.98 21 69.9 48 9.8 49.6 0 0
16:00 1017 30.03 846 24.98 21 69.8 50 10.2 50.3 0 0
16:01 1017 30.03 846 24.98 21 69.8 51 10.6 51.1 0 0
16:02 1017 30.03 846 24.98 21 69.8 50 10.3 50.5 0 0
16:03 1017 30.03 846 24.98 21 69.7 49 10.1 50.2 0 0
16:04 1017 30.03 846 24.98 21 69.7 50 10.3 50.5 0 0
16:05 1017 30.03 846 24.98 21 69.8 49 9.9 49.8 0 0
16:06 1017 30.03 846 24.98 21.1 69.9 50 10.3 50.5 0 0
16:07 1017 30.03 846 24.98 21.1 69.9 49 10 50.1 0 0
16:08 1017 30.03 846 24.98 21.1 69.9 50 10.5 50.9 0 0
16:09 1017 30.03 846 24.98 21.1 70 50 10.3 50.6 0 0
16:10 1017 30.03 846 24.98 21.1 69.9 49 10.2 50.4 0 0
16:11 1017 30.03 846 24.98 21 69.8 50 10.4 50.7 0 0
16:12 1017 30.03 846 24.98 21 69.8 50 10.2 50.3 0 0
16:13 1017 30.03 846 24.98 21 69.8 49 9.9 49.8 0 0
16:14 1017 30.03 846 24.98 21 69.8 49 10 50 0 0
16:15 1017 30.03 846 24.98 21 69.9 49 10 50 0 0
16:16 1017 30.03 846 24.98 21.1 70 50 10.4 50.7 0 0
16:17 1017 30.03 846 24.98 21.2 70.2 50 10.6 51.1 0 0
16:18 1017 30.03 846 24.98 21.3 70.3 50 10.6 51.1 0 0
16:19 1017 30.03 846 24.98 21.3 70.4 49 10.5 50.9 0 0
16:20 1017 30.03 846 24.98 21.4 70.6 50 10.6 51.1 0 0
16:21 1017 30.03 846 24.98 21.5 70.7 48 10.2 50.4 0 0
16:22 1017 30.03 846 24.98 21.5 70.7 50 10.9 51.6 0 0
16:23 1017 30.03 847 25.01 21.5 70.6 48 10.2 50.4 0 0
16:24 1017 30.03 847 25.01 21.5 70.6 50 10.9 51.6 0 0
16:25 1017 30.03 847 25.01 21.4 70.5 48 10.3 50.5 0 0
16:26 1018 30.06 847 25.01 21.4 70.5 49 10.4 50.7 0 0
16:27 1018 30.06 847 25.01 21.4 70.6 49 10.4 50.8 0 0
16:28 1018 30.06 847 25.01 21.5 70.7 50 10.7 51.2 0 0
16:29 1018 30.06 847 25.01 21.5 70.7 49 10.5 50.9 0 0
16:30 1018 30.06 847 25.01 21.5 70.6 50 10.9 51.6 0 0
16:31 1018 30.06 847 25.01 21.5 70.7 51 11.2 52.1 0 0
16:32 1018 30.06 847 25.01 21.5 70.6 49 10.4 50.6 0 0
16:33 1018 30.06 847 25.01 21.6 70.8 47 9.9 49.9 0 0
16:34 1018 30.06 847 25.01 21.7 71.1 47 10.1 50.2 0 0
16:35 1018 30.06 847 25.01 21.8 71.3 47 10.3 50.5 0 0
16:36 1018 30.06 847 25.01 22 71.6 47 10.4 50.7 0 0
16:37 1018 30.06 847 25.01 22.3 72.1 48 10.8 51.4 0 0
16:38 1018 30.06 847 25.01 22.4 72.3 46 10.2 50.4 0 0
16:39 1018 30.06 847 25.01 22.3 72.1 46 10.4 50.7 0 0
16:40 1018 30.06 847 25.01 22.2 71.9 48 10.7 51.3 0 0
16:41 1018 30.06 847 25.01 22.2 71.9 49 11 51.9 0 0
16:42 1018 30.06 847 25.01 22 71.5 49 11 51.8 0 0
16:43 1018 30.06 847 25.01 21.6 70.9 51 11.2 52.1 0 0
16:44 1018 30.06 847 25.01 21.1 69.9 53 11.3 52.4 0 0
16:45 1018 30.06 848 25.04 20.6 69.1 56 11.6 52.9 0 0
16:46 1018 30.06 847 25.01 20.5 68.8 56 11.6 52.9 0 0
16:47 1018 30.06 847 25.01 20.5 68.9 56 11.6 52.9 0 0
16:48 1018 30.06 847 25.01 20.4 68.7 57 11.7 53 0 0
16:49 1018 30.06 847 25.01 20.3 68.6 57 11.6 52.9 0 0
16:50 1018 30.06 847 25.01 20.3 68.5 58 11.9 53.5 0 0
16:51 1018 30.06 848 25.04 20 68 58 11.6 52.9 0 0
16:52 1018 30.06 848 25.04 19.7 67.5 58 11.3 52.3 0 0
16:53 1018 30.06 848 25.04 19.4 67 60 11.6 52.9 0 0
16:54 1018 30.06 848 25.04 19.3 66.8 60 11.5 52.7 0 0
16:55 1018 30.06 848 25.04 19.4 66.9 60 11.5 52.7 0 0
16:56 1018 30.06 848 25.04 19.5 67.2 61 11.8 53.3 0 0
16:57 1018 30.06 848 25.04 19.8 67.6 60 12 53.6 0 0
16:58 1018 30.06 848 25.04 20 68 58 11.5 52.8 0 0
16:59 1018 30.06 848 25.04 20.2 68.3 58 11.9 53.3 0 0
17:00 1018 30.06 848 25.04 20.2 68.4 57 11.6 53 0 0
17:01 1018 30.06 848 25.04 20 67.9 59 11.9 53.4 0 0
17:02 1018 30.06 848 25.04 19.9 67.8 60 12 53.7 0 0
17:03 1018 30.06 848 25.04 19.8 67.7 57 11.3 52.3 0 0
17:04 1018 30.06 848 25.04 19.8 67.6 58 11.5 52.7 0 0
17:05 1019 30.09 848 25.04 19.7 67.4 60 11.7 53 0 0
17:06 1019 30.09 848 25.04 19.6 67.3 60 11.8 53.3 0 0
17:07 1019 30.09 848 25.04 19.5 67.1 59 11.5 52.7 0 0
17:08 1019 30.09 848 25.04 19.3 66.8 60 11.6 52.8 0 0
17:09 1019 30.09 848 25.04 19.1 66.3 62 11.7 53.1 0 0
17:10 1019 30.09 848 25.04 18.9 65.9 63 11.7 53 0 0
17:11 1019 30.09 848 25.04 18.7 65.6 64 11.8 53.3 0 0
17:12 1019 30.09 848 25.04 18.6 65.4 64 11.7 53.1 0 0
17:13 1019 30.09 848 25.04 18.5 65.3 64 11.7 53.1 0 0
17:14 1019 30.09 848 25.04 18.4 65.2 62 11 51.8 0 0
17:15 1019 30.09 848 25.04 18.3 64.9 63 11.3 52.4 0 0
17:16 1019 30.09 848 25.04 18.1 64.7 65 11.5 52.8 0 0
17:17 1019 30.09 848 25.04 18.2 64.7 64 11.3 52.3 0 0
17:18 1019 30.09 848 25.04 18.1 64.5 64 11.2 52.2 0 0
17:19 1019 30.09 848 25.04 18 64.4 64 11.1 52 0 0
17:20 1019 30.09 848 25.04 18 64.4 64 11.1 52 0 0
17:21 1019 30.09 848 25.04 17.9 64.3 63 11 51.7 0 0
17:22 1019 30.09 848 25.04 17.9 64.2 64 11.2 52.1 0 0
17:23 1019 30.09 848 25.04 17.9 64.2 65 11.2 52.1 0 0
17:24 1019 30.09 848 25.04 17.8 64.1 65 11.1 52.1 0 0
17:25 1019 30.09 848 25.04 17.8 64 66 11.3 52.4 0 0
17:26 1019 30.09 848 25.04 17.8 64 68 11.8 53.3 0 0
17:27 1019 30.09 848 25.04 17.9 64.1 65 11.3 52.4 0 0
17:28 1019 30.09 848 25.04 17.9 64.2 67 11.8 53.2 0 0
17:29 1019 30.09 848 25.04 17.9 64.2 66 11.5 52.7 0 0
17:30 1019 30.09 848 25.04 17.9 64.2 68 12 53.5 0 0
17:31 1019 30.09 848 25.04 17.9 64.2 65 11.4 52.5 0 0
17:32 1019 30.09 848 25.04 17.8 64 65 11.1 52 0 0
17:33 1019 30.09 848 25.04 17.7 63.9 66 11.4 52.6 0 0
17:34 1019 30.09 848 25.04 17.6 63.8 66 11.3 52.4 0 0
17:35 1019 30.09 848 25.04 17.7 63.8 67 11.5 52.7 0 0
17:36 1019 30.09 848 25.04 17.7 63.8 66 11.4 52.5 0 0
17:37 1019 30.09 848 25.04 17.7 63.9 66 11.4 52.4 0 0
17:38 1019 30.09 848 25.04 17.7 63.9 65 11.2 52.2 0 0
17:39 1019 30.09 848 25.04 17.8 64 67 11.5 52.8 0 0
17:40 1019 30.09 848 25.04 17.8 64 66 11.5 52.6 0 0
17:41 1019 30.09 848 25.04 17.8 64 66 11.4 52.5 0 0
17:42 1019 30.09 848 25.04 17.8 64 66 11.5 52.8 0 0
17:43 1019 30.09 848 25.04 17.8 64 65 11.3 52.3 0 0
17:44 1019 30.09 848 25.04 17.8 64.1 64 11 51.9 0 0
17:45 1019 30.09 848 25.04 18 64.4 66 11.5 52.8 0 0
17:46 1019 30.09 848 25.04 18.2 64.7 65 11.7 53 0 0
17:47 1019 30.09 848 25.04 18.3 64.9 64 11.5 52.7 0 0
17:48 1019 30.09 848 25.04 18.3 64.9 63 11.3 52.3 0 0
17:49 1019 30.09 848 25.04 18.4 65 63 11.3 52.3 0 0
17:50 1019 30.09 848 25.04 18.4 65.1 64 11.5 52.6 0 0
17:51 1019 30.09 848 25.04 18.4 65.1 66 11.9 53.5 0 0
17:52 1019 30.09 848 25.04 18.4 65.2 63 11.3 52.4 0 0
17:53 1019 30.09 848 25.04 18.5 65.2 63 11.4 52.5 0 0
17:54 1019 30.09 848 25.04 18.5 65.2 62 11.2 52.2 0 0
17:55 1019 30.09 848 25.04 18.5 65.2 62 11.2 52.2 0 0
17:56 1019 30.09 848 25.04 18.4 65.2 60 10.5 51 0 0
17:57 1019 30.09 848 25.04 18.5 65.2 63 11.3 52.4 0 0
17:58 1019 30.09 848 25.04 18.5 65.2 59 10.5 50.8 0 0
17:59 1019 30.09 848 25.04 18.4 65.2 61 10.9 51.6 0 0
18:00 1019 30.09 848 25.04 18.4 65.1 62 11 51.8 0 0
18:01 1019 30.09 848 25.04 18.4 65.1 62 11 51.9 0 0
18:02 1019 30.09 848 25.04 18.5 65.3 62 11.2 52.1 0 0
18:03 1019 30.09 848 25.04 18.9 65.9 60 10.9 51.7 0 0
18:04 1019 30.09 848 25.04 19 66.1 61 11.3 52.4 0 0
18:05 1019 30.09 848 25.04 19 66.2 58 10.6 51 0 0
18:06 1019 30.09 848 25.04 18.9 66 59 10.9 51.6 0 0
18:07 1019 30.09 848 25.04 18.8 65.8 59 10.7 51.3 0 0
18:08 1019 30.09 848 25.04 18.7 65.6 60 10.9 51.7 0 0
18:09 1019 30.09 848 25.04 18.6 65.4 60 10.8 51.4 0 0
18:10 1019 30.09 848 25.04 18.5 65.3 58 10.2 50.4 0 0
18:11 1019 30.09 848 25.04 18.5 65.2 62 11.2 52.1 0 0
18:12 1019 30.09 848 25.04 18.4 65.1 60 10.7 51.3 0 0
18:13 1019 30.09 848 25.04 18.4 65.1 60 10.7 51.2 0 0
18:14 1019 30.09 848 25.04 18.3 65 60 10.6 51.1 0 0
18:15 1019 30.09 848 25.04 18.3 64.9 60 10.6 51 0 0
18:16 1018 30.06 848 25.04 18.3 64.9 59 10.3 50.6 0 0
18:17 1018 30.06 848 25.04 18.3 64.9 60 10.6 51 0 0
18:18 1018 30.06 848 25.04 18.3 65 61 10.7 51.3 0 0
18:19 1018 30.06 848 25.04 18.4 65 60 10.6 51.1 0 0
18:20 1018 30.06 848 25.04 18.3 65 61 10.8 51.4 0 0
18:21 1019 30.09 848 25.04 18.4 65.1 61 10.8 51.4 0 0
18:22 1019 30.09 848 25.04 18.4 65.1 59 10.4 50.6 0 0
18:23 1019 30.09 848 25.04 18.4 65.2 59 10.5 50.9 0 0
18:24 1019 30.09 848 25.04 18.5 65.2 58 10.2 50.3 0 0
18:25 1019 30.09 848 25.04 18.5 65.3 59 10.4 50.7 0 0
18:26 1019 30.09 848 25.04 18.5 65.3 60 10.7 51.2 0 0
18:27 1019 30.09 848 25.04 18.6 65.4 60 10.8 51.5 0 0
18:28 1019 30.09 848 25.04 18.6 65.4 60 10.8 51.5 0 0
18:29 1019 30.09 848 25.04 18.6 65.4 60 10.9 51.5 0 0
18:30 1019 30.09 848 25.04 18.5 65.3 59 10.4 50.8 0 0
18:31 1019 30.09 848 25.04 18.4 65.2 61 10.8 51.5 0 0
18:32 1019 30.09 848 25.04 18.3 65 62 11 51.9 0 0
18:33 1019 30.09 848 25.04 18.2 64.8 61 10.7 51.2 0 0
18:34 1019 30.09 848 25.04 18.2 64.7 61 10.5 50.9 0 0
18:35 1019 30.09 848 25.04 18.1 64.6 62 10.8 51.4 0 0
18:36 1019 30.09 848 25.04 18.1 64.6 62 10.8 51.4 0 0
18:37 1019 30.09 848 25.04 18 64.5 62 10.7 51.3 0 0
18:38 1019 30.09 848 25.04 18 64.5 63 10.9 51.7 0 0
18:39 1019 30.09 848 25.04 18 64.4 63 10.9 51.6 0 0
18:40 1019 30.09 848 25.04 18 64.4 64 11.1 52 0 0
18:41 1019 30.09 848 25.04 17.9 64.3 66 11.5 52.7 0 0
18:42 1019 30.09 848 25.04 17.9 64.2 66 11.5 52.7 0 0
18:43 1019 30.09 848 25.04 17.8 64.1 66 11.5 52.7 0 0
18:44 1019 30.09 848 25.04 17.8 64 66 11.5 52.7 0 0
18:45 1019 30.09 848 25.04 17.8 64 67 11.7 53.1 0 0
18:46 1019 30.09 848 25.04 17.8 64 68 11.7 53.1 0 0
18:47 1019 30.09 848 25.04 17.8 64 68 11.8 53.3 0 0
18:48 1019 30.09 848 25.04 17.7 63.9 68 11.7 53.1 0 0
18:49 1019 30.09 848 25.04 17.7 63.8 68 11.7 53.1 0 0
18:50 1019 30.09 848 25.04 17.6 63.6 68 11.5 52.8 0 0
18:51 1019 30.09 848 25.04 17.5 63.5 68 11.6 52.9 0 0
18:52 1019 30.09 848 25.04 17.4 63.4 68 11.5 52.7 0 0
18:53 1019 30.09 848 25.04 17.4 63.2 69 11.7 53 0 0
18:54 1019 30.09 848 25.04 17.3 63.1 69 11.7 53 0 0
18:55 1019 30.09 848 25.04 17.2 63 70 11.7 53.1 0 0
18:56 1019 30.09 848 25.04 17.2 62.9 71 12 53.6 0 0
18:57 1019 30.09 848 25.04 17.2 62.9 72 12.2 53.9 0 0
18:58 1019 30.09 848 25.04 17.1 62.8 73 12.2 54 0 0
18:59 1019 30.09 848 25.04 17 62.7 73 12.2 54 0 0
19:00 1019 30.09 848 25.04 17 62.5 73 12.1 53.8 0 0
19:01 1019 30.09 848 25.04 16.9 62.4 74 12.4 54.2 0 0
19:02 1019 30.09 848 25.04 16.8 62.3 76 12.6 54.7 0 0
19:03 1019 30.09 848 25.04 16.7 62.1 77 12.7 54.8 0 0
19:04 1019 30.09 848 25.04 16.6 61.9 77 12.6 54.6 0 0
19:05 1019 30.09 848 25.04 16.6 61.8 77 12.5 54.4 0 0
19:06 1019 30.09 848 25.04 16.6 61.8 77 12.5 54.5 0 0
19:07 1019 30.09 848 25.04 16.5 61.7 78 12.6 54.7 0 0
19:08 1019 30.09 848 25.04 16.5 61.7 78 12.7 54.9 0 0
19:09 1019 30.09 848 25.04 16.4 61.6 79 12.8 55.1 0 0
19:10 1019 30.09 848 25.04 16.4 61.4 80 13 55.3 0 0
19:11 1019 30.09 848 25.04 16.2 61.2 82 13.1 55.6 0 0
19:12 1019 30.09 848 25.04 16.2 61.1 82 13.2 55.7 0 0
19:13 1019 30.09 848 25.04 16.1 61 82 13.1 55.6 0 0
19:14 1019 30.09 848 25.04 16 60.8 82 13 55.4 0 0
19:15 1019 30.09 849 25.07 16 60.8 83 13.1 55.6 0 0
19:16 1019 30.09 849 25.07 16 60.8 82 13 55.5 0 0
19:17 1019 30.09 849 25.07 16 60.7 83 13.2 55.7 0 0
19:18 1019 30.09 849 25.07 15.9 60.6 84 13.2 55.8 0 0
19:19 1019 30.09 849 25.07 15.9 60.6 85 13.4 56 0 0
19:20 1019 30.09 849 25.07 15.9 60.6 84 13.2 55.8 0 0
19:21 1019 30.09 849 25.07 15.9 60.6 84 13.2 55.8 0 0
19:22 1019 30.09 849 25.07 15.9 60.6 84 13.2 55.8 0 0
19:23 1019 30.09 849 25.07 15.9 60.6 84 13.2 55.7 0 0
19:24 1019 30.09 849 25.07 15.9 60.6 84 13.2 55.8 0 0
19:25 1019 30.09 849 25.07 15.9 60.6 84 13.2 55.7 0 0
19:26 1019 30.09 849 25.07 15.9 60.7 83 13 55.5 0 0
19:27 1019 30.09 848 25.04 15.9 60.7 82 13 55.3 0 0
19:28 1019 30.09 848 25.04 16 60.7 83 13.1 55.5 0 0
19:29 1019 30.09 848 25.04 16 60.8 82 13 55.4 0 0
19:30 1019 30.09 848 25.04 16.1 60.9 83 13.1 55.6 0 0
19:31 1019 30.09 848 25.04 16.1 60.9 83 13.2 55.8 0 0
19:32 1019 30.09 848 25.04 16.1 61 83 13.3 55.9 0 0
19:33 1019 30.09 848 25.04 16.1 61 83 13.3 56 0 0
19:34 1019 30.09 848 25.04 16.1 60.9 83 13.2 55.8 0 0
19:35 1019 30.09 848 25.04 16.1 61 83 13.2 55.7 0 0
19:36 1019 30.09 848 25.04 16.1 60.9 84 13.4 56 0 0
19:37 1019 30.09 848 25.04 16.1 61 84 13.4 56.1 0 0
19:38 1019 30.09 848 25.04 16 60.9 84 13.3 56 0 0
19:39 1019 30.09 848 25.04 16 60.8 83 13.1 55.6 0 0
19:40 1019 30.09 848 25.04 16 60.8 83 13.2 55.7 0 0
19:41 1019 30.09 848 25.04 16 60.9 83 13.2 55.7 0 0
19:42 1019 30.09 848 25.04 16 60.9 83 13.2 55.7 0 0
19:43 1019 30.09 848 25.04 16 60.9 83 13.3 55.9 0 0
19:44 1019 30.09 848 25.04 16 60.9 83 13.2 55.7 0 0
19:45 1019 30.09 848 25.04 16 60.9 82 13.1 55.5 0 0
19:46 1019 30.09 848 25.04 16.1 60.9 82 13 55.4 0 0
19:47 1019 30.09 848 25.04 16.1 61 81 13 55.3 0 0
19:48 1019 30.09 848 25.04 16.1 61 80 12.7 54.8 0 0
19:49 1019 30.09 848 25.04 16.1 61.1 79 12.5 54.5 0 0
19:50 1019 30.09 848 25.04 16.2 61.2 78 12.4 54.4 0 0
19:51 1019 30.09 848 25.04 16.3 61.3 79 12.7 54.8 0 0
19:52 1019 30.09 848 25.04 16.3 61.3 80 12.9 55.3 0 0
19:53 1019 30.09 848 25.04 16.3 61.3 80 12.9 55.3 0 0
19:54 1019 30.09 848 25.04 16.2 61.2 80 12.8 55.1 0 0
19:55 1019 30.09 848 25.04 16.2 61.2 80 12.8 55.1 0 0
19:56 1019 30.09 848 25.04 16.2 61.2 80 12.8 55 0 0
19:57 1019 30.09 848 25.04 16.2 61.2 81 12.9 55.2 0 0
19:58 1019 30.09 848 25.04 16.2 61.1 80 12.8 55.1 0 0
19:59 1019 30.09 848 25.04 16.2 61.1 81 13 55.4 0 0
20:00 1019 30.09 848 25.04 16.1 61 81 13 55.3 0 0
20:01 1019 30.09 848 25.04 16 60.8 82 12.9 55.3 0 0
20:02 1019 30.09 848 25.04 16 60.8 82 12.9 55.3 0 0
20:03 1019 30.09 848 25.04 16 60.7 82 12.9 55.2 0 0
20:04 1019 30.09 848 25.04 16 60.8 82 12.9 55.3 0 0
20:05 1019 30.09 848 25.04 16 60.7 83 13 55.5 0 0
20:06 1019 30.09 848 25.04 16 60.7 82 12.9 55.2 0 0
20:07 1019 30.09 848 25.04 16 60.7 81 12.7 54.9 0 0
20:08 1019 30.09 848 25.04 16 60.8 81 12.8 55 0 0
20:09 1019 30.09 848 25.04 16 60.8 81 12.8 55 0 0
20:10 1019 30.09 848 25.04 16 60.8 81 12.8 55 0 0
20:11 1019 30.09 848 25.04 16 60.8 81 12.8 55.1 0 0
20:12 1019 30.09 848 25.04 15.9 60.7 81 12.8 55 0 0
20:13 1019 30.09 848 25.04 15.9 60.6 81 12.7 54.8 0 0
20:14 1019 30.09 848 25.04 15.9 60.6 82 12.8 55 0 0
20:15 1019 30.09 848 25.04 15.8 60.5 81 12.7 54.8 0 0
20:16 1019 30.09 848 25.04 15.8 60.5 81 12.6 54.6 0 0
20:17 1019 30.09 848 25.04 15.8 60.4 81 12.5 54.6 0 0
20:18 1019 30.09 848 25.04 15.8 60.5 81 12.6 54.7 0 0
20:19 1019 30.09 848 25.04 15.8 60.5 82 12.7 54.9 0 0
20:20 1019 30.09 848 25.04 15.8 60.4 82 12.7 54.8 0 0
20:21 1019 30.09 848 25.04 15.8 60.4 83 12.9 55.2 0 0
20:22 1019 30.09 848 25.04 15.8 60.4 83 12.9 55.3 0 0
20:23 1019 30.09 848 25.04 15.8 60.4 83 12.9 55.3 0 0
20:24 1019 30.09 848 25.04 15.8 60.4 84 13.1 55.6 0 0
20:25 1019 30.09 848 25.04 15.8 60.4 84 13 55.5 0 0
20:26 1019 30.09 848 25.04 15.8 60.4 83 13 55.3 0 0
20:27 1019 30.09 848 25.04 15.8 60.5 84 13.1 55.6 0 0
20:28 1019 30.09 848 25.04 15.8 60.4 84 13.2 55.8 0 0
20:29 1019 30.09 848 25.04 15.8 60.4 85 13.2 55.8 0 0
20:30 1019 30.09 848 25.04 15.7 60.3 85 13.2 55.8 0 0
20:31 1019 30.09 848 25.04 15.7 60.2 85 13.3 55.9 0 0
20:32 1019 30.09 848 25.04 15.7 60.2 86 13.3 56 0 0
20:33 1019 30.09 848 25.04 15.7 60.2 86 13.3 55.9 0 0
20:34 1019 30.09 848 25.04 15.7 60.2 86 13.3 56 0 0
20:35 1019 30.09 848 25.04 15.6 60.2 86 13.3 55.9 0 0
20:36 1019 30.09 848 25.04 15.6 60.1 85 13.1 55.7 0 0
20:37 1019 30.09 848 25.04 15.7 60.2 85 13.1 55.6 0 0
20:38 1019 30.09 848 25.04 15.7 60.2 85 13.2 55.8 0 0
20:39 1019 30.09 848 25.04 15.7 60.3 85 13.3 55.9 0 0
20:40 1019 30.09 848 25.04 15.7 60.2 86 13.4 56.1 0 0
20:41 1019 30.09 848 25.04 15.6 60.2 86 13.3 55.9 0 0
20:42 1019 30.09 848 25.04 15.7 60.2 86 13.3 56 0 0
20:43 1019 30.09 848 25.04 15.7 60.2 86 13.5 56.2 0 0
20:44 1019 30.09 848 25.04 15.7 60.2 86 13.4 56.2 0 0
20:45 1019 30.09 848 25.04 15.7 60.3 86 13.3 56 0 0
20:46 1019 30.09 848 25.04 15.7 60.3 85 13.2 55.7 0 0
20:47 1019 30.09 848 25.04 15.8 60.4 83 13 55.4 0 0
20:48 1019 30.09 848 25.04 15.9 60.5 83 13 55.3 0 0
20:49 1019 30.09 848 25.04 15.8 60.4 83 12.9 55.2 0 0
20:50 1019 30.09 848 25.04 15.8 60.4 83 13 55.3 0 0
20:51 1019 30.09 848 25.04 15.7 60.2 83 12.9 55.2 0 0
20:52 1019 30.09 848 25.04 15.7 60.2 83 12.8 55 0 0
20:53 1019 30.09 848 25.04 15.7 60.2 83 12.9 55.2 0 0
20:54 1019 30.09 848 25.04 15.7 60.3 84 13 55.4 0 0
20:55 1019 30.09 848 25.04 15.7 60.2 84 13 55.4 0 0
20:56 1019 30.09 848 25.04 15.7 60.2 84 13 55.5 0 0
20:57 1019 30.09 848 25.04 15.6 60.2 84 13.1 55.5 0 0
20:58 1019 30.09 848 25.04 15.6 60.1 85 13.2 55.7 0 0
20:59 1019 30.09 848 25.04 15.6 60 85 13.1 55.6 0 0
21:00 1019 30.09 848 25.04 15.5 60 86 13.1 55.7 0 0
21:01 1019 30.09 848 25.04 15.5 59.9 86 13.2 55.7 0 0
21:02 1019 30.09 848 25.04 15.5 59.9 86 13.2 55.8 0 0
21:03 1019 30.09 849 25.07 15.5 59.8 87 13.3 56 0 0
21:04 1019 30.09 849 25.07 15.5 59.8 87 13.4 56.1 0 0
21:05 1020 30.12 849 25.07 15.5 59.9 88 13.5 56.3 0 0
21:06 1020 30.12 849 25.07 15.4 59.8 88 13.5 56.3 0 0
21:07 1020 30.12 849 25.07 15.4 59.6 89 13.5 56.4 0 0
21:08 1020 30.12 849 25.07 15.3 59.6 89 13.5 56.4 0 0
21:09 1020 30.12 849 25.07 15.3 59.6 89 13.5 56.4 0 0
21:10 1020 30.12 849 25.07 15.3 59.5 90 13.6 56.5 0 0
21:11 1020 30.12 849 25.07 15.3 59.5 89 13.5 56.4 0 0
21:12 1020 30.12 849 25.07 15.2 59.4 89 13.5 56.3 0 0
21:13 1020 30.12 849 25.07 15.2 59.4 89 13.4 56.2 0 0
21:14 1020 30.12 849 25.07 15.2 59.4 89 13.4 56.1 0 0
21:15 1020 30.12 849 25.07 15.3 59.5 88 13.4 56.1 0 0
21:16 1020 30.12 849 25.07 15.3 59.6 88 13.3 55.9 0 0
21:17 1020 30.12 849 25.07 15.4 59.7 87 13.3 56 0 0
21:18 1020 30.12 849 25.07 15.5 59.8 87 13.3 56 0 0
21:19 1020 30.12 849 25.07 15.4 59.8 87 13.3 55.9 0 0
21:20 1020 30.12 849 25.07 15.5 59.8 87 13.3 55.9 0 0
21:21 1020 30.12 849 25.07 15.5 59.9 87 13.4 56.1 0 0
21:22 1020 30.12 849 25.07 15.5 59.8 87 13.3 56 0 0
21:23 1020 30.12 849 25.07 15.4 59.8 87 13.3 56 0 0
21:24 1020 30.12 849 25.07 15.5 59.8 87 13.4 56.1 0 0
21:25 1020 30.12 849 25.07 15.4 59.8 88 13.4 56.1 0 0
21:26 1020 30.12 849 25.07 15.4 59.7 88 13.4 56.2 0 0
21:27 1020 30.12 849 25.07 15.4 59.8 88 13.5 56.3 0 0
21:28 1020 30.12 849 25.07 15.4 59.8 88 13.4 56.2 0 0
21:29 1020 30.12 849 25.07 15.4 59.7 88 13.4 56.2 .6 0.024
21:30 1019 30.09 849 25.07 15.4 59.6 89 13.5 56.3 0 0
21:31 1019 30.09 849 25.07 15.3 59.5 90 13.6 56.5 .2 0.008
21:32 1019 30.09 848 25.04 15.2 59.3 90 13.6 56.5 0 0
21:33 1019 30.09 848 25.04 15.2 59.3 91 13.6 56.5 0 0
21:34 1019 30.09 848 25.04 15.2 59.3 91 13.7 56.6 0 0
21:35 1019 30.09 848 25.04 15.2 59.3 91 13.7 56.7 0 0
21:36 1019 30.09 849 25.07 15.2 59.3 90 13.6 56.5 0 0
21:37 1019 30.09 849 25.07 15.2 59.4 90 13.6 56.5 0 0
21:38 1019 30.09 849 25.07 15.2 59.4 90 13.6 56.5 0 0
21:39 1019 30.09 848 25.04 15.3 59.5 90 13.6 56.6 0 0
21:40 1019 30.09 849 25.07 15.2 59.4 90 13.6 56.5 0 0
21:41 1019 30.09 848 25.04 15.2 59.4 90 13.6 56.5 0 0
21:42 1019 30.09 848 25.04 15.2 59.3 90 13.6 56.4 0 0
21:43 1019 30.09 848 25.04 15.1 59.2 90 13.6 56.4 0 0
21:44 1019 30.09 848 25.04 15.2 59.3 90 13.6 56.5 0 0
21:45 1019 30.09 848 25.04 15.2 59.4 90 13.6 56.5 0 0
21:46 1019 30.09 848 25.04 15.2 59.4 89 13.5 56.3 0 0
21:47 1019 30.09 848 25.04 15.3 59.5 89 13.4 56.2 0 0
21:48 1019 30.09 848 25.04 15.3 59.6 88 13.5 56.2 0 0
21:49 1019 30.09 848 25.04 15.4 59.7 89 13.5 56.3 0 0
21:50 1019 30.09 848 25.04 15.4 59.7 89 13.6 56.4 0 0
21:51 1019 30.09 848 25.04 15.4 59.6 89 13.6 56.5 0 0
21:52 1019 30.09 848 25.04 15.3 59.6 90 13.6 56.5 0 0
21:53 1019 30.09 848 25.04 15.3 59.5 90 13.6 56.6 0 0
21:54 1019 30.09 848 25.04 15.3 59.5 90 13.6 56.5 0 0
21:55 1019 30.09 848 25.04 15.2 59.4 90 13.6 56.5 0 0
21:56 1019 30.09 848 25.04 15.2 59.3 90 13.6 56.6 0 0
21:57 1019 30.09 848 25.04 15.2 59.3 91 13.7 56.6 0 0
21:58 1019 30.09 848 25.04 15.1 59.3 91 13.7 56.6 0 0
21:59 1019 30.09 848 25.04 15.2 59.3 91 13.7 56.6 0 0
22:00 1019 30.09 848 25.04 15.2 59.4 91 13.7 56.7 0 0
22:01 1019 30.09 848 25.04 15.2 59.4 90 13.6 56.5 0 0
22:02 1019 30.09 848 25.04 15.4 59.6 89 13.6 56.6 0 0
22:03 1019 30.09 848 25.04 15.3 59.6 89 13.6 56.4 0 0
22:04 1019 30.09 848 25.04 15.4 59.7 88 13.5 56.3 0 0
22:05 1019 30.09 848 25.04 15.4 59.7 88 13.5 56.2 0 0
22:06 1019 30.09 848 25.04 15.4 59.7 88 13.5 56.3 0 0
22:07 1019 30.09 848 25.04 15.3 59.5 88 13.3 56 0 0
22:08 1019 30.09 848 25.04 15.3 59.5 88 13.4 56.1 0 0
22:09 1019 30.09 848 25.04 15.3 59.5 89 13.4 56.1 0 0
22:10 1019 30.09 848 25.04 15.2 59.4 89 13.4 56.1 0 0
22:11 1019 30.09 848 25.04 15.1 59.2 89 13.3 56 0 0
22:12 1019 30.09 848 25.04 15 59 89 13.3 55.9 0 0
22:13 1019 30.09 848 25.04 14.9 58.9 90 13.2 55.8 0 0
22:14 1019 30.09 848 25.04 14.8 58.7 90 13.2 55.7 0 0
22:15 1019 30.09 848 25.04 14.8 58.6 90 13.2 55.7 0 0
22:16 1019 30.09 848 25.04 14.8 58.6 90 13.1 55.7 0 0
22:17 1019 30.09 848 25.04 14.8 58.6 90 13.1 55.6 0 0
22:18 1019 30.09 848 25.04 14.8 58.6 90 13.1 55.6 0 0
22:19 1019 30.09 849 25.07 14.7 58.5 90 13 55.5 0 0
22:20 1019 30.09 849 25.07 14.7 58.4 90 13 55.4 0 0
22:21 1019 30.09 849 25.07 14.6 58.3 90 13 55.3 0 0
22:22 1019 30.09 849 25.07 14.6 58.3 90 12.9 55.3 0 0
22:23 1019 30.09 849 25.07 14.6 58.2 90 12.9 55.3 0 0
22:24 1019 30.09 849 25.07 14.5 58.1 90 12.9 55.3 0 0
22:25 1019 30.09 849 25.07 14.5 58.1 91 13 55.4 0 0
22:26 1019 30.09 849 25.07 14.5 58.2 91 13 55.4 0 0
22:27 1019 30.09 849 25.07 14.6 58.2 90 13 55.4 0 0
22:28 1019 30.09 849 25.07 14.6 58.2 90 13 55.4 0 0
22:29 1019 30.09 849 25.07 14.6 58.3 90 13 55.4 0 0
22:30 1019 30.09 849 25.07 14.6 58.3 90 13 55.4 0 0
22:31 1019 30.09 849 25.07 14.6 58.3 90 13 55.3 0 0
22:32 1019 30.09 849 25.07 14.6 58.2 90 13 55.4 0 0
22:33 1019 30.09 849 25.07 14.6 58.3 90 13 55.4 0 0
22:34 1019 30.09 849 25.07 14.6 58.2 90 13 55.3 0 0
22:35 1019 30.09 849 25.07 14.6 58.2 90 12.9 55.2 0 0
22:36 1019 30.09 849 25.07 14.6 58.3 89 12.9 55.2 0 0
22:37 1019 30.09 849 25.07 14.6 58.2 89 12.8 55.1 0 0
22:38 1019 30.09 849 25.07 14.5 58.1 89 12.7 54.9 0 0
22:39 1020 30.12 849 25.07 14.4 58 89 12.7 54.8 0 0
22:40 1020 30.12 849 25.07 14.4 57.9 89 12.7 54.8 0 0
22:41 1020 30.12 849 25.07 14.3 57.8 90 12.7 54.8 0 0
22:42 1020 30.12 849 25.07 14.3 57.7 89 12.6 54.7 0 0
22:43 1020 30.12 849 25.07 14.1 57.3 89 12.2 54 0 0
22:44 1020 30.12 849 25.07 13.7 56.7 91 12.3 54.2 0 0
22:45 1020 30.12 849 25.07 13.6 56.4 94 12.5 54.6 0 0
22:46 1020 30.12 849 25.07 13.6 56.6 93 12.6 54.7 0 0
22:47 1020 30.12 849 25.07 13.7 56.7 93 12.6 54.7 0 0
22:48 1020 30.12 849 25.07 13.7 56.7 92 12.5 54.6 0 0
22:49 1020 30.12 849 25.07 13.8 56.8 93 12.6 54.7 0 0
22:50 1020 30.12 849 25.07 13.8 56.8 93 12.6 54.6 0 0
22:51 1020 30.12 849 25.07 13.9 57 93 12.8 55.1 0 0
22:52 1020 30.12 849 25.07 14 57.2 92 12.7 54.8 0 0
22:53 1020 30.12 849 25.07 14.1 57.4 92 12.9 55.2 0 0
22:54 1020 30.12 849 25.07 14.3 57.8 91 12.9 55.2 0 0
22:55 1020 30.12 849 25.07 14.5 58.1 90 13 55.3 0 0
22:56 1020 30.12 849 25.07 14.6 58.3 89 12.8 55 0 0
22:57 1020 30.12 849 25.07 14.5 58.1 88 12.6 54.7 0 0
22:58 1020 30.12 849 25.07 14.4 57.9 89 12.6 54.7 0 0
22:59 1019 30.09 849 25.07 14.3 57.8 89 12.5 54.5 0 0
23:00 1019 30.09 849 25.07 14.2 57.6 89 12.4 54.3 0 0
23:01 1019 30.09 849 25.07 14.1 57.3 90 12.4 54.4 0 0
23:02 1019 30.09 849 25.07 14.1 57.3 91 12.6 54.6 0 0
23:03 1019 30.09 849 25.07 14 57.2 89 12.3 54.1 0 0
23:04 1019 30.09 849 25.07 13.9 56.9 91 12.4 54.3 0 0
23:05 1019 30.09 849 25.07 13.8 56.8 91 12.4 54.3 0 0
23:06 1020 30.12 849 25.07 13.9 56.9 91 12.5 54.4 0 0
23:07 1020 30.12 849 25.07 14 57.3 90 12.4 54.4 0 0
23:08 1020 30.12 849 25.07 14.1 57.4 89 12.4 54.3 0 0
23:09 1020 30.12 849 25.07 14.2 57.5 88 12.3 54.1 0 0
23:10 1019 30.09 849 25.07 14.1 57.3 88 12.2 53.9 0 0
23:11 1019 30.09 849 25.07 14 57.2 88 12 53.6 0 0
23:12 1020 30.12 849 25.07 13.8 56.8 88 11.9 53.3 0 0
23:13 1019 30.09 849 25.07 13.6 56.6 90 12 53.6 0 0
23:14 1019 30.09 849 25.07 13.6 56.4 89 11.8 53.3 0 0
23:15 1019 30.09 849 25.07 13.5 56.3 89 11.8 53.3 0 0
23:16 1019 30.09 849 25.07 13.4 56.2 90 11.8 53.3 0 0
23:17 1019 30.09 849 25.07 13.6 56.5 90 12 53.5 0 0
23:18 1019 30.09 849 25.07 14 57.1 87 11.9 53.5 0 0
23:19 1019 30.09 849 25.07 14.3 57.8 86 12 53.6 0 0
23:20 1019 30.09 849 25.07 14.4 58 85 11.9 53.4 0 0
23:21 1019 30.09 849 25.07 14.5 58.1 84 11.8 53.3 0 0
23:22 1019 30.09 849 25.07 14.4 57.9 84 11.8 53.2 0 0
23:23 1020 30.12 849 25.07 14.4 57.8 85 11.9 53.3 0 0
23:24 1020 30.12 849 25.07 14.4 57.9 85 11.9 53.4 0 0
23:25 1020 30.12 849 25.07 14.4 58 85 11.9 53.4 0 0
23:26 1020 30.12 849 25.07 14.5 58.1 84 11.9 53.4 0 0
23:27 1020 30.12 849 25.07 14.5 58.1 84 11.9 53.4 0 0
23:28 1019 30.09 849 25.07 14.5 58.1 84 11.8 53.3 0 0
23:29 1019 30.09 849 25.07 14.4 57.9 85 11.9 53.3 0 0
23:30 1019 30.09 849 25.07 14.3 57.8 85 11.8 53.2 0 0
23:31 1019 30.09 849 25.07 14.1 57.5 86 11.8 53.2 0 0
23:32 1019 30.09 849 25.07 14 57.3 86 11.7 53.1 0 0
23:33 1019 30.09 849 25.07 13.9 57.1 86 11.7 53 0 0
23:34 1019 30.09 849 25.07 13.9 57.1 86 11.6 52.9 0 0
23:35 1019 30.09 849 25.07 13.8 56.9 86 11.6 52.8 0 0
23:36 1019 30.09 849 25.07 13.7 56.7 87 11.5 52.8 0 0
23:37 1019 30.09 849 25.07 13.7 56.6 87 11.5 52.8 0 0
23:38 1019 30.09 849 25.07 13.6 56.5 87 11.5 52.8 0 0
23:39 1019 30.09 849 25.07 13.5 56.3 88 11.5 52.7 0 0
23:40 1019 30.09 849 25.07 13.5 56.2 88 11.6 52.8 0 0
23:41 1019 30.09 849 25.07 13.4 56 89 11.5 52.8 0 0
23:42 1019 30.09 849 25.07 13.3 55.9 89 11.5 52.8 0 0
23:43 1019 30.09 849 25.07 13.2 55.8 89 11.5 52.7 0 0
23:44 1019 30.09 849 25.07 13.2 55.7 89 11.4 52.6 0 0
23:45 1019 30.09 849 25.07 13.1 55.6 89 11.3 52.4 0 0
23:46 1019 30.09 849 25.07 13.1 55.5 89 11.2 52.2 0 0
23:47 1019 30.09 849 25.07 13 55.3 89 11.2 52.1 0 0
23:48 1019 30.09 849 25.07 12.9 55.3 89 11.3 52.3 0 0
23:49 1019 30.09 848 25.04 13 55.3 90 11.3 52.3 0 0
23:50 1019 30.09 848 25.04 13.1 55.5 89 11.4 52.4 0 0
23:51 1019 30.09 848 25.04 13.1 55.7 89 11.3 52.3 0 0
23:52 1019 30.09 848 25.04 13.2 55.8 88 11.3 52.4 0 0
23:53 1019 30.09 848 25.04 13.3 56 87 11.2 52.2 0 0
23:54 1019 30.09 848 25.04 13.3 55.9 87 11.2 52.2 0 0
23:55 1019 30.09 848 25.04 13.3 55.9 87 11.2 52.2 0 0
23:56 1019 30.09 848 25.04 13.2 55.8 87 11.2 52.1 0 0
23:57 1019 30.09 848 25.04 13.2 55.8 87 11.1 52.1 0 0
23:58 1019 30.09 848 25.04 13.2 55.7 87 11.1 51.9 0 0
23:59 1019 30.09 848 25.04 13.1 55.7 87 11.1 52 0 0
24:00 1019 30.09 848 25.04 13 55.5 88 11.1 52 0 0